GFSWCAN_prec_radar_048.txt.gz
Reflectivity
22 14 6 7 3 2 10 9 9 -3 -20 -2 9 -20 -11 -6 17 15 -8 -2 9 2 -20 -19 -20 -20 -20 -20 -20 -20 -20 -20 -20 24 -6 -15 -20 -20 -20 -20 -20 -20 -20 -20 -20 -20 -20 -20 -20 -20 -20 -20 -20 -20
12 7 -17 -18 9 2 -1 6 3 -2 12 9 16 16 23 27 17 -14 -15 21 25 29 4 -14 -20 -20 -20 -20 -20 -20 -20 -20 -20 18 -16 16 -20 -20 -20 -20 -20 -20 -20 -20 -20 -20 -20 -20 -20 -20 -20 -20 -20 -20
-20 -20 -20 -20 -20 -15 -15 3 9 30 24 23 36 35 16 18 24 -19 5 -17 21 31 8 4 -15 6 -20 -20 -20 -20 -18 -20 11 16 -13 -13 -16 -13 2 -20 -20 -20 -20 -20 -20 -20 -20 -20 -20 -20 -20 -20 -20 -20
-20 -20 -20 -20 -8 6 -12 6 22 33 36 33 33 27 18 9 15 -20 -20 3 -13 6 27 29 -5 24 -20 -20 -20 -20 -20 -20 -20 20 11 14 30 -10 -20 -20 -20 -20 -20 -20 -20 -20 -20 -20 -20 -20 -20 -20 -20 -20
11 3 -17 -20 -20 -20 -20 -20 -1 -4 19 7 -7 17 -2 7 12 -16 -20 -2 -15 15 20 5 -16 -20 2 -20 -17 -20 -20 -20 -18 -20 -20 0 27 11 -20 -20 -20 -20 -20 -20 -20 -20 -20 -20 -20 -20 -20 -20 -20 -20
10 -20 -20 -20 -20 -20 -20 -20 -20 3 -20 -20 -19 -20 -20 -20 -20 18 16 -6 -19 -19 -5 -11 -18 -5 18 19 13 22 -10 0 18 -20 -10 3 -15 -20 -12 -20 -20 -20 -20 -20 -20 -20 -20 -20 -20 -20 -20 -20 -20 -20
11 -3 -20 -20 -20 -20 -20 -20 -20 -20 -20 -20 -20 -20 -20 -20 -20 6 -19 -16 -16 -15 24 10 23 28 15 23 17 16 25 0 21 13 14 11 2 -15 -20 -20 -20 -20 -20 -20 -20 -20 -20 -20 -20 -20 -20 -20 -20 -20
25 18 14 -6 -14 -20 -20 -20 -20 -20 -20 -8 -20 -20 -20 -20 -3 7 9 20 21 31 29 12 16 43 42 44 15 7 23 25 17 38 26 10 -5 -10 -16 -20 -20 -20 -20 -20 -20 -20 -20 -20 -20 -20 -20 -20 -20 -20
32 29 23 8 -8 -17 -20 -20 -20 -8 -18 -15 -20 -11 24 21 17 4 34 38 42 38 41 33 37 39 28 5 -1 34 20 13 23 23 25 11 -20 -20 -20 -20 -20 -20 -20 -20 -20 -20 -20 -20 -20 -20 -20 -20 -20 -20
32 30 26 27 24 12 20 12 -1 5 17 32 26 32 35 29 37 40 40 37 39 25 25 -6 5 -6 7 -1 -20 -17 18 21 13 5 21 14 -20 -20 -20 -20 -20 -20 -20 -20 -20 -20 -20 -20 -20 -20 -20 -20 -20 -20
20 24 20 13 21 22 23 23 33 36 35 36 36 32 36 40 39 40 39 26 13 -9 -20 -20 -20 -3 -20 2 10 -20 -15 -15 -20 -7 -20 -20 -20 -20 -20 -20 -20 -20 -17 -20 -20 -20 -20 -20 -20 -20 -20 -20 -20 -20
17 27 21 2 2 16 20 22 19 28 31 37 40 39 38 34 33 23 4 -11 -19 -20 -20 -20 -20 -20 -20 -20 -20 -20 -20 -20 -20 -11 1 -20 -19 -14 14 9 -5 -20 -20 -20 -20 -20 -20 -20 -20 -20 -20 -20 -20 -18
14 11 17 32 18 -2 17 29 39 34 36 31 30 24 30 5 -16 -20 -20 -20 -20 -8 -20 -20 -20 -20 -20 -20 -20 -20 -20 -20 -20 -19 -16 4 -20 -20 -20 -20 -20 -20 -19 -20 -20 -19 -4 -19 -10 -20 -20 -19 -19 -20
21 16 21 22 25 34 22 19 12 19 13 10 -5 -18 -6 3 -8 -3 -20 -18 -6 -0 -20 -20 -20 12 -18 -4 -20 14 -19 3 -17 -20 -20 -20 -20 -19 -17 -18 -20 -19 -7 -12 -7 -6 -13 -10 -19 -15 -11 -9 -4 -19
17 14 -6 -1 15 18 -4 -4 -17 -20 -20 -20 -18 -18 -15 4 12 8 8 -12 -7 -20 -20 -20 -20 -20 5 3 -8 -20 -18 -20 -20 -20 -9 5 -9 -18 -14 -20 -19 -18 -20 -19 -16 -18 -20 -12 -1 4 4 -11 -20 -20
-20 -10 21 -1 -20 -16 -9 -2 -6 -17 -17 -20 -18 -4 1 4 3 4 16 19 16 -20 -15 -20 -3 15 -2 -15 -19 -20 -20 -20 -20 -12 -13 -19 -12 -19 -13 -15 -13 5 -11 -19 -20 -17 -13 -18 -19 -20 -20 -20 -20 -20
-20 -20 -19 -8 -12 -20 -20 -20 -20 -20 -20 -20 -12 7 -16 3 17 20 21 17 6 -18 -4 5 -13 -20 -20 -20 -20 -20 -20 -20 -20 -20 -15 -17 -20 -7 -4 -3 -14 -18 -20 -19 -3 -13 -2 -10 -20 -20 -20 -20 -20 -20
-20 -20 -20 -20 -10 -20 -20 -19 19 -4 -19 -17 -4 8 -2 4 5 6 9 -1 -13 -18 -19 -6 -10 -20 -20 -20 -16 -12 -13 -19 3 15 -9 -4 8 15 -6 0 17 -18 -20 -20 -20 -20 -20 -20 -20 -20 -20 -20 -20 -20
-20 -20 -20 -20 -20 -20 -20 -20 -17 -8 13 14 16 12 7 14 22 18 12 16 21 20 14 13 11 13 14 19 20 17 11 1 5 13 28 27 15 -2 3 -5 -19 -20 -20 -20 -20 -20 -20 -20 -20 -20 -20 -20 -20 -20
-20 -20 -20 -20 -20 -20 -20 -20 -20 -20 -8 15 16 9 2 10 3 -1 -2 4 9 6 5 -1 4 9 12 15 14 12 11 26 5 0 9 12 21 -3 -11 -18 -14 -14 -18 -16 -19 -20 -20 -20 -20 -20 -20 -20 -20 -20
-20 -20 -20 -20 -20 -20 -20 -20 -13 -11 -9 4 14 1 13 8 -2 -3 -15 -6 -20 -4 11 16 15 18 18 14 13 14 27 15 -1 -4 -7 0 11 -2 5 4 -15 -16 -19 -20 -10 -9 -18 -20 -20 -20 -20 -20 -20 -20
-20 -20 -20 -20 -20 -20 -20 -20 -17 9 0 6 -0 -17 -20 -1 -15 -20 -20 -17 7 15 15 14 13 14 11 7 13 9 10 -4 -15 -18 -19 -20 -19 -17 -17 -11 -18 -7 -2 -1 3 -9 -20 -20 -20 -20 -20 -20 -20 -20
-20 -20 -20 -20 -20 -20 -20 -20 -20 -20 -18 -14 -20 -20 -20 -16 8 -20 -19 -2 6 13 13 9 11 10 11 13 9 7 8 1 -7 -4 -6 -16 -13 -4 -4 2 3 -13 -11 3 4 -0 -15 -20 -20 -20 -20 -20 -20 -20
-20 -20 -20 -20 -20 -20 -20 -20 -20 -20 -20 -20 -20 -20 -20 -5 -20 -20 -15 -16 6 4 -17 -2 -2 -18 -10 -10 -9 1 8 7 3 -4 -2 -18 -20 -17 -16 -12 -9 -1 -2 -10 -17 -20 -20 -20 -20 -20 -20 -20 -20 -20
-20 -20 -20 -20 -20 -20 -20 -20 -20 -20 -20 -20 -20 -20 -20 -20 -20 -20 -20 -7 -20 -20 -20 -14 -20 -20 -20 -20 -20 -19 -18 -20 -20 -19 -8 -11 -17 -17 -15 -17 -19 -20 -20 -20 -20 -20 -20 -20 -20 -20 -20 -20 -20 -20
-20 -20 -19 -15 -20 -20 -20 -15 -20 -20 -20 -20 -20 -20 -20 -20 -20 -20 -8 -6 -20 -20 -20 -20 -20 -20 -20 -20 -20 -20 -19 -20 -20 -20 -20 -20 -20 -20 -20 -20 -20 -20 -20 -20 -20 -20 -20 -20 -20 -20 -20 -20 -20 -20
-20 -20 -20 -20 -20 -20 -20 -20 -20 -20 -20 -20 -20 -20 -9 -20 -20 -3 1 -20 -20 -20 -20 -20 -20 -20 -17 -14 -19 -20 -20 -20 -20 -20 -20 -20 -20 -20 -20 -20 -20 -20 -20 -20 -20 -20 -20 -20 -20 -20 -20 -20 -20 -20
-20 -16 -4 -20 -20 -20 -20 -20 -20 -20 -20 -20 -20 -20 -20 -20 -11 -3 -11 6 -20 -20 -20 -20 -20 -20 -20 -20 -20 -20 -20 -20 -20 -20 -20 -20 -20 -20 -20 -20 -20 -20 -20 -20 -20 -20 -20 -20 -20 -20 -20 -20 -20 -20
-20 -20 -20 -20 -20 -20 -20 -20 -20 -20 -20 -20 -20 -20 -20 -14 -17 -20 -18 -18 -20 -20 -20 -20 -20 -20 -20 -20 -20 -20 -20 -20 -20 -20 -20 -20 -20 -20 -20 -20 -20 -20 -20 -20 -20 -20 -16 -20 -20 -20 -20 -20 -20 -20
-20 -20 -20 -20 -20 -20 -20 -20 -20 -20 -20 -20 -15 -9 -20 -20 -5 -13 -20 -20 -20 -20 -20 -20 -20 -20 -20 -20 -20 -20 -20 -20 -20 -20 -20 -20 -20 -20 -20 -20 -20 -20 -20 -20 -20 -20 -20 -20 -20 -20 -20 -20 -20 -20
-20 -20 -20 -20 -20 -8 -20 -20 -20 -20 -20 -20 -20 -20 -20 -20 -20 -20 -20 -20 -20 -20 -20 -20 -20 -20 -20 -20 -20 -20 -20 -20 -20 -20 -20 -20 -20 -20 -20 -20 -20 -20 -20 -20 -20 -20 -20 -20 -20 -20 -20 -20 -20 -20
-20 -20 -20 -20 -20 -20 8 -2 5 -13 -20 -20 -20 -20 -20 -20 -20 -20 -20 -20 -20 -20 -20 -20 -20 -20 -20 -20 -20 -20 -20 -20 -20 -20 -20 -20 -20 -20 -20 -20 -20 -20 -20 -20 -20 -20 -20 -20 -20 -20 -20 -20 -20 -20
-20 -20 -20 -20 -19 -20 -20 -20 -20 -20 -20 -20 -20 -20 -20 -20 -20 -20 -20 -20 -20 -20 -20 -20 -20 -20 -20 -20 -20 -20 -20 -20 -20 -20 -20 -20 -20 -20 -20 -20 -20 -20 -20 -20 -20 -20 -20 -20 -20 -20 -20 -20 -20 -20

GFSWCAN_prec_radar_051.txt.gz
Reflectivity
23 26 28 29 28 25 15 24 26 25 12 -6 -20 -20 -20 -20 5 26 31 5 -7 10 -9 -11 -15 -20 -20 -20 -20 -20 -20 -20 -20 -20 -6 -5 -19 -20 -20 -20 -20 -20 -20 -20 -20 -20 -20 -20 -20 -20 -20 -20 -20 -20
22 25 22 18 18 16 13 3 -20 -20 -20 -20 -20 12 -10 -14 31 23 31 8 12 22 25 -7 -20 -16 -20 -20 -20 -20 -20 -20 -20 -20 -14 18 -20 -20 -20 -20 -20 -20 -20 -20 -20 -20 -20 -20 -20 -20 -20 -20 -20 -20
12 3 5 -17 -20 -20 -16 -1 -18 -17 -9 15 22 23 10 25 30 20 33 5 3 8 -15 24 18 -20 -20 -20 -20 -20 -20 -20 -15 -20 -17 19 -17 -20 -20 -20 -20 -20 -20 -20 -20 -20 -20 -20 -20 -20 -20 -20 -20 -20
2 -20 -7 2 -6 14 16 8 5 17 -9 -20 -20 -4 -20 -12 11 12 24 13 -0 25 6 -20 -20 -20 -15 -20 -20 -20 -20 -20 -20 3 23 9 -20 -20 -20 -20 -20 -8 -16 -20 -20 -20 -20 -20 -20 -20 -20 -20 -20 -20
12 -10 14 15 -6 13 13 -20 -12 -15 -0 -2 -20 -20 -20 15 30 27 10 -11 -8 -7 25 -2 -20 -20 -9 -20 -20 -20 -20 -20 -20 -20 -7 12 -18 2 -20 -2 15 -14 -20 -20 -20 -20 -20 -20 -20 -20 -20 -20 -20 -20
-20 13 10 9 3 13 29 24 25 29 27 27 41 27 27 34 33 10 21 4 -9 -19 16 12 7 12 -20 1 22 19 -20 -20 -20 -19 -20 -20 -20 -19 -19 -20 -20 -10 0 -5 -20 -20 -20 -20 -20 -20 -20 -20 -20 -20
10 12 10 11 4 -19 13 23 27 18 37 21 2 12 21 26 10 -20 -7 -0 -19 24 14 23 22 -20 -20 20 20 31 -9 -8 -20 6 -20 7 -10 -20 -20 -20 -20 -20 -20 -20 -20 -20 -20 -20 -20 -20 -20 -20 -20 -20
14 -20 -20 -20 -0 8 -5 -14 -20 -20 -11 -20 -19 -20 -20 -20 -19 -18 0 -4 -16 6 3 23 6 -20 -19 -11 20 17 22 10 -15 -17 -8 -20 -20 -20 -20 -20 -20 -18 -20 -20 -20 -20 -20 -20 -20 -20 -20 -20 -20 -20
-20 -20 -20 -20 -20 -20 -20 -20 -20 -20 -20 -20 -10 -17 -18 -20 -20 -15 24 15 12 -20 -15 7 -15 -20 -14 32 27 -11 9 22 -2 18 11 0 20 -5 -20 -20 -20 -20 -15 -20 -20 -20 -20 -20 -20 -20 -20 -20 -20 -20
-20 -20 -20 -20 -20 -20 -20 -20 -20 -20 -20 -20 9 15 13 -20 6 33 33 28 21 -8 -11 -8 -9 -2 -13 3 37 35 -7 25 27 34 30 23 14 14 -6 10 2 0 -15 -20 -20 -20 -20 -20 -20 -20 -20 -20 -20 -20
-15 -20 -11 -11 -16 -19 -20 -20 -20 -20 -1 -0 12 26 -7 28 20 28 28 -1 -7 -4 -17 -20 4 38 13 22 30 41 30 28 39 28 34 36 30 9 -20 -20 -15 4 -12 -20 -15 4 0 -9 -20 -20 -20 -20 -20 -20
10 -18 -20 -14 -19 0 1 -1 -9 -14 -18 25 38 19 6 14 13 7 23 31 35 22 25 40 31 14 36 28 35 31 23 8 1 -20 -18 -20 -20 2 8 14 17 3 -9 -2 13 13 6 -20 -20 -20 -20 -20 -18 -20
16 4 -18 -17 8 17 9 15 34 32 35 27 9 30 22 28 20 21 20 8 9 -9 -6 5 13 -2 6 25 27 -19 -20 -20 -20 -20 -20 -20 -20 -20 -20 -5 -14 -20 0 -10 -17 -9 -4 -20 -20 -18 -18 -18 -20 -20
23 17 22 16 29 33 25 31 35 43 37 39 37 25 20 16 12 15 7 8 13 14 6 9 -11 -19 -20 -20 -20 -20 -20 -20 -20 -20 -20 -20 -20 -20 -20 -20 -19 -17 12 15 7 2 -20 -17 -17 -18 -20 -20 -20 -19
27 29 21 30 29 32 32 36 37 30 23 6 10 -6 -9 6 6 5 11 20 9 10 -4 13 13 -18 -20 -18 -20 -20 -20 -20 -20 -20 -20 -20 -20 -17 -10 -19 -6 9 1 -13 -20 -14 -10 -16 -20 -20 -20 -20 -20 -20
32 25 19 25 30 31 34 34 17 -11 -20 -20 -15 1 5 -3 8 14 4 -2 9 8 -20 -20 -20 -20 -9 -20 -20 -20 -20 -20 -20 -20 -9 -15 -20 -19 -10 -17 -10 -9 -17 -18 -14 -16 -20 -20 -13 -10 -11 -19 -20 -20
22 34 21 11 25 27 26 25 7 -20 -20 -20 -11 10 -17 -15 -0 10 7 8 -9 -20 -20 -20 -20 -20 -1 -20 -20 -20 -19 -16 -19 -18 -19 -20 -20 -20 -5 -3 6 -4 -18 -20 -20 -20 -20 -16 -13 -20 -20 -20 -20 -20
-20 -15 12 25 27 21 20 11 20 -20 -20 5 -1 5 7 18 15 -4 8 17 2 -15 -19 -10 11 1 -14 -20 -16 -1 -1 -11 -14 -13 -9 19 20 22 16 5 4 -12 -7 1 3 -1 -2 -19 -20 -20 -20 -20 -20 -20
-20 -20 -20 -20 -20 -20 -10 4 10 -6 2 -5 -7 1 7 13 14 13 13 21 20 10 0 9 -1 -7 0 5 13 14 15 16 15 17 17 27 30 22 14 12 4 8 9 9 9 5 -2 -7 -20 -20 -20 -20 -20 -20
-20 -20 -20 -20 -20 -20 -20 -20 -16 -16 5 18 18 11 4 12 6 0 7 7 8 5 11 10 13 16 15 18 20 19 19 24 15 4 7 14 16 12 12 6 5 6 4 8 9 8 -1 -20 -20 -20 -20 -20 -20 -20
-20 -20 -20 -20 -20 -20 -20 -20 -20 -12 -1 12 21 7 15 15 -1 -19 -20 -15 -18 2 12 15 16 16 19 19 17 16 15 11 6 1 -0 4 12 3 4 9 3 0 -15 -10 -18 -17 -15 -12 -19 -20 -20 -20 -20 -20
-20 -20 -20 -20 -20 -20 -20 -20 -20 -14 -20 -10 -18 -20 -15 -18 -20 -19 -18 -20 2 10 15 15 16 18 17 14 17 12 13 4 4 1 1 -3 -12 -7 -1 7 4 2 0 3 3 1 2 5 3 -11 -20 -20 -20 -20
-20 -20 -20 -20 -20 -20 -20 -20 -20 -20 -20 -20 -20 -20 -20 -20 -16 -20 -20 -2 8 15 14 11 13 12 12 15 12 9 12 12 6 6 8 7 4 -0 -7 -2 1 -14 -18 -5 -10 -14 -11 -9 -17 -20 -20 -20 -20 -20
-20 -20 -20 -20 -20 -20 -20 -20 -20 -20 -20 -20 -20 -20 -2 -14 -20 -20 -18 -18 5 1 -17 -11 1 5 8 4 -15 -16 -3 -12 -15 -17 -14 -19 -20 -17 -17 -17 -18 -19 -18 -17 -19 -18 -18 -19 -20 -20 -20 -20 -20 -20
-20 -20 -20 -20 -20 -20 -20 -20 -20 -20 -20 -20 -20 -20 -19 -20 -20 -20 -20 -19 -18 -18 -17 -16 -18 -18 -19 -17 -19 -18 -19 -20 -20 -20 -19 -20 -20 -20 -20 -20 -20 -20 -20 -20 -20 -20 -20 -20 -20 -20 -20 -20 -20 -20
-20 -20 -20 -20 -20 -20 -20 -20 -20 -20 -20 -20 -20 -19 -20 -20 -20 -20 -19 -8 -20 -20 -20 -20 -20 -20 -20 -20 -20 -20 -20 -20 -20 -20 -20 -20 -20 -20 -20 -20 -20 -20 -20 -20 -20 -20 -20 -20 -20 -20 -20 -20 -20 -20
-20 -20 -20 -20 -20 -20 -20 -20 -20 -20 -20 -20 -20 -20 -20 -20 -20 1 3 -20 -20 -20 -20 -20 -20 -20 -20 -20 -20 -20 -20 -20 -20 -20 -20 -20 -20 -20 -20 -20 -20 -20 -20 -20 -20 -20 -20 -20 -20 -20 -20 -20 -20 -20
-20 -20 -20 -20 -20 -20 -20 -20 -20 -20 -20 -20 -20 -20 -20 -20 -20 -11 -14 5 -16 -20 -20 -20 -20 -20 -20 -20 -20 -20 -20 -20 -20 -20 -20 -20 -20 -20 -20 -20 -20 -20 -20 -20 -20 -20 -20 -20 -20 -20 -20 -20 -20 -20
-20 -20 -20 -20 -20 -20 -20 -20 -20 -20 -20 -20 -20 -20 -20 -20 -20 -20 -19 -20 -20 -20 -20 -20 -20 -20 -20 -20 -20 -20 -20 -20 -20 -20 -20 -20 -20 -20 -20 -20 -20 -20 -20 -20 -20 -20 -20 -19 -20 -20 -20 -20 -20 -20
-20 -20 -20 -20 -20 -20 -20 -20 -20 -20 -20 -20 -20 -17 -20 -20 -10 -15 -20 -20 -20 -20 -20 -20 -20 -20 -20 -20 -20 -20 -20 -20 -20 -20 -20 -20 -20 -20 -20 -20 -20 -20 -20 -20 -20 -20 -20 -20 -20 -20 -20 -20 -20 -20
-20 -20 -20 -20 -20 -20 -20 -20 -20 -20 -20 -20 -20 -20 -20 -20 -20 -20 -20 -20 -20 -20 -20 -20 -20 -20 -20 -20 -20 -20 -20 -20 -20 -20 -20 -20 -20 -20 -20 -20 -20 -20 -20 -20 -20 -20 -20 -20 -20 -20 -20 -20 -20 -20
-20 -20 -20 -20 -20 -20 -20 -20 -20 -20 -20 -20 -20 -20 -20 -20 -20 -20 -20 -20 -20 -20 -20 -20 -20 -20 -20 -20 -20 -20 -20 -20 -20 -20 -20 -20 -20 -20 -20 -20 -20 -20 -20 -20 -20 -20 -20 -20 -20 -20 -20 -20 -20 -20
-20 -20 -20 -20 -20 -19 -15 -5 -20 -20 -20 -20 -20 -20 -20 -20 -20 -20 -20 -20 -20 -20 -20 -20 -20 -20 -20 -20 -20 -20 -20 -20 -20 -20 -20 -20 -20 -20 -20 -20 -20 -20 -20 -20 -20 -20 -20 -20 -20 -20 -20 -20 -20 -20

GFSWCAN_prec_radar_054.txt.gz
Reflectivity
4 -0 10 -5 3 19 28 28 31 29 12 6 3 -8 8 -11 -16 13 35 15 6 -14 -20 -6 -20 -20 -20 -20 -20 -20 -20 -20 -20 -20 -20 -18 -19 -19 -20 -20 -20 -20 -20 -20 -20 -20 -20 -20 -20 -20 -20 -20 -20 -20
33 28 26 28 28 33 33 28 16 9 11 18 -7 17 15 -14 6 13 11 35 17 12 -16 -1 10 11 -20 -20 -20 -20 -20 -20 -20 -20 -20 -20 -20 -20 -20 -20 -20 -20 -20 -20 -20 -20 -20 -20 -20 -20 -20 -20 -20 -20
25 17 22 23 28 28 23 14 16 19 17 18 25 18 9 8 11 -20 -18 24 37 6 -20 -16 9 19 9 -20 -20 -20 -20 -20 -20 -20 -20 -20 -20 -20 -20 -20 -20 -20 -20 -20 -20 -20 -20 -20 -20 -20 -20 -20 -20 -20
12 17 18 26 26 19 17 4 4 16 20 3 -20 -10 8 -7 -20 -19 -2 10 29 -1 -6 -19 -18 -20 -20 -20 -20 -20 -20 -20 -20 20 -8 -20 -20 -20 -20 -20 -20 -20 -20 -20 -20 -20 -20 -20 -20 -20 -20 -20 -20 -20
-20 -20 -13 -16 -11 -10 7 1 -12 -18 -13 -16 -18 -14 -20 -20 -20 -12 1 25 33 4 -20 -20 18 21 -20 -20 2 -20 -20 -20 4 -20 -8 -12 -20 -20 -11 -12 -20 -20 -20 -20 -20 6 14 -2 -20 -20 -20 -20 -20 -20
-19 -20 -20 -1 -11 -20 -20 -20 -20 -18 9 22 20 7 18 -3 19 -4 36 40 29 11 -20 -20 -19 -19 20 -1 -10 22 3 -20 -20 -20 -20 -20 -20 -4 16 -20 -20 -20 -20 -20 -20 -20 4 -18 -20 -20 -20 -20 -20 -20
-20 -20 -7 -18 8 -13 -20 -20 -20 -18 8 5 14 20 10 20 13 36 31 31 12 -19 -8 -20 -20 -20 -20 -17 -15 -11 -13 -20 -20 -20 -20 -20 -20 -1 -20 -20 -20 -20 -20 -20 -20 -20 -20 -20 -20 -20 -20 -20 -20 -20
-20 -20 9 23 13 -8 -2 10 -10 7 23 -8 -15 9 11 9 29 19 -4 -20 -20 9 5 -20 -17 -20 -20 -12 23 23 14 20 -17 -18 -20 -20 -20 -20 -20 -20 -20 -20 -20 -20 -20 -20 -20 -20 -20 -20 -20 -20 -20 -20
-20 -20 -20 1 -20 -17 24 9 21 28 20 19 32 25 22 15 -15 -19 -13 -20 -0 -20 13 -20 11 14 -9 -20 17 15 18 12 -12 16 -20 6 -20 -20 -20 -20 -20 -20 -20 -20 -20 -20 -20 -20 -20 -20 -20 -20 -20 -20
-20 -20 -20 -20 -20 -20 -20 -20 -20 -20 -20 -4 -20 2 7 18 -9 -20 -0 18 14 -18 -20 -18 -20 -20 -20 -20 -20 12 9 21 -15 -20 12 -8 -20 -20 -20 -20 -20 -20 0 3 -20 -20 -20 -20 -20 -20 -20 -20 -20 -20
-20 -20 -20 -20 -20 -20 -20 -20 -15 8 -13 -20 -20 -17 -12 5 4 37 31 13 18 7 -20 -20 -20 -20 -20 -13 21 -16 0 39 24 -18 -14 -20 -20 -20 -20 -20 -20 -13 27 8 -0 3 -19 -20 -20 -20 -20 -20 -20 -20
-20 -20 -20 -20 -20 -20 -1 10 14 18 8 2 -8 -17 13 23 25 17 0 -18 -20 -20 -17 4 8 -20 -20 -20 20 24 4 17 27 15 25 21 -19 -3 27 25 32 33 21 10 -6 15 -13 -20 -20 -20 -9 3 19 4
-6 -3 -15 -20 -20 -2 3 15 20 25 22 34 35 18 9 13 -13 -20 -20 -20 -20 -20 13 -17 -10 -11 -20 -20 32 28 23 4 19 29 24 -3 17 0 19 22 21 30 30 21 15 -6 -20 4 26 21 16 7 2 -15
-5 15 22 11 -15 7 20 31 26 31 38 24 8 -5 23 -7 -20 -20 -20 -20 -18 -11 6 1 28 28 2 26 24 27 12 22 19 18 13 7 9 6 -16 -20 -20 -20 1 15 5 2 19 27 22 13 -11 -16 -20 -20
17 17 22 26 21 22 27 29 27 34 42 30 32 15 4 17 19 15 22 26 21 16 -12 12 17 2 -20 -7 -7 -20 -20 -16 -18 -14 -12 -13 -20 -10 -20 -20 -8 9 21 26 15 5 -8 -14 -13 -15 -20 -20 -7 5
32 30 29 22 33 34 33 34 36 36 26 18 10 11 11 5 -2 -0 2 2 12 11 18 23 19 24 11 -11 -20 -20 -20 -4 -5 15 14 14 17 17 10 -4 5 2 -1 -10 -16 -14 -1 4 2 -20 -17 -1 -4 -3
31 14 24 26 25 24 28 29 29 -18 -19 -18 5 13 12 8 5 8 11 12 20 11 -1 -19 -20 2 15 15 12 -0 -5 -11 -15 -10 -17 -10 -16 -16 -15 -14 -7 9 9 1 9 11 4 -2 -20 -20 -15 -7 -3 -6
34 32 30 33 34 33 36 37 28 -15 -20 4 1 9 3 8 10 2 8 9 14 21 18 16 12 3 -18 -11 4 15 18 16 17 17 15 6 6 12 17 18 20 19 8 1 7 6 3 6 4 3 2 -7 -18 -20
-20 -20 -7 14 20 22 26 14 -2 9 10 5 5 -8 3 5 10 9 6 11 9 3 -8 3 -6 -20 -13 -4 8 14 17 16 16 17 18 20 20 18 18 19 16 11 9 9 4 -1 -5 -15 -19 -20 -20 -20 -20 -20
-20 -18 3 6 -20 -20 -20 -20 -20 -20 -5 13 6 -9 -16 3 0 2 -1 6 6 6 8 -3 4 8 10 12 16 19 18 19 19 15 16 18 19 17 15 12 8 5 -3 3 4 0 -3 -7 -18 -20 -20 -20 -20 -20
-20 -20 -20 -20 -20 -20 -20 -20 -20 -6 -20 1 -14 -20 -19 -3 -19 -20 -20 -3 -8 -3 9 13 13 14 16 19 18 17 15 17 12 9 4 3 13 8 8 8 2 0 -8 -4 -14 -1 0 1 4 -2 -15 -20 -20 -20
-20 -20 -20 -20 -20 -20 -20 -20 -20 -2 -20 -20 -20 -20 -20 -20 -20 -20 -20 -20 4 9 14 14 15 16 17 15 17 15 19 15 13 5 7 6 4 5 4 7 -7 -15 -20 -18 -20 -20 -20 -20 -20 -19 -20 -19 -20 -20
-20 -20 -20 -20 -20 -20 -20 -20 -20 -20 -20 -20 -20 -20 -20 -20 -20 -20 -20 -2 3 11 13 11 14 15 14 17 14 10 12 12 -3 -14 -12 -17 -18 -16 -20 -20 -20 -20 -20 -20 -20 -20 -20 -20 -20 -20 -20 -20 -20 -20
-20 -20 -20 -20 -20 -20 -20 -20 -20 -20 -20 -20 -20 -20 -20 -20 -20 -20 -18 -8 1 6 4 8 9 9 11 9 2 2 7 -2 -20 -20 -20 -20 -20 -20 -20 -20 -20 -20 -20 -20 -20 -20 -20 -20 -20 -20 -20 -20 -20 -20
-20 -20 -20 -20 -20 -20 -20 -20 -20 -20 -20 -20 -20 -20 -20 -20 -20 -20 -20 -20 -19 -18 -17 -14 -17 -3 -4 -1 -10 -11 -18 -20 -20 -20 -20 -20 -20 -20 -20 -20 -20 -20 -20 -20 -20 -20 -20 -20 -20 -20 -20 -20 -20 -20
-20 -20 -20 -20 -20 -20 -20 -20 -20 -20 -20 -20 -20 -20 -20 -20 -20 -20 -14 -8 -20 -20 -20 -20 -20 -20 -20 -20 -20 -20 -20 -20 -20 -20 -20 -20 -20 -20 -20 -20 -20 -20 -20 -20 -20 -20 -20 -20 -20 -20 -20 -20 -20 -20
-20 -20 -20 -20 -20 -20 -20 -20 -20 -20 -20 -20 -20 -20 -20 -20 -20 -11 -6 -20 -20 -20 -20 -20 -20 -20 -20 -20 -20 -20 -20 -20 -20 -20 -20 -20 -20 -20 -20 -20 -20 -20 -20 -20 -20 -20 -20 -20 -20 -20 -20 -20 -20 -20
-20 -20 -20 -20 -20 -20 -20 -20 -20 -20 -20 -20 -20 -20 -20 -20 -20 -20 -20 -8 -20 -20 -20 -20 -20 -20 -20 -20 -20 -20 -20 -20 -20 -20 -20 -20 -20 -20 -20 -20 -20 -20 -20 -20 -20 -20 -20 -20 -20 -20 -20 -20 -20 -20
-20 -20 -20 -20 -20 -20 -20 -20 -20 -20 -20 -20 -20 -20 -20 -20 -20 -20 -20 -20 -20 -20 -20 -20 -20 -20 -20 -20 -20 -20 -20 -20 -20 -20 -20 -20 -20 -20 -20 -20 -20 -20 -20 -20 -20 -20 -12 -20 -20 -20 -20 -20 -20 -20
-20 -20 -20 -20 -20 -20 -20 -20 -20 -20 -20 -20 -15 -18 -20 -20 -18 -19 -20 -20 -20 -20 -20 -20 -20 -20 -20 -20 -20 -20 -20 -20 -20 -20 -20 -20 -20 -20 -20 -20 -20 -20 -20 -20 -20 -20 -20 -20 -20 -20 -20 -20 -20 -20
-20 -20 -20 -20 -20 -20 -20 -20 -20 -20 -20 -20 -20 -20 -20 -20 -20 -20 -20 -20 -20 -20 -20 -20 -20 -20 -20 -20 -20 -20 -20 -20 -20 -20 -20 -20 -20 -20 -20 -20 -20 -20 -20 -20 -20 -20 -20 -20 -20 -20 -20 -20 -20 -20
-20 -20 -20 -20 -20 -20 -20 -19 -20 -20 -20 -20 -20 -20 -20 -20 -20 -20 -20 -20 -20 -20 -20 -20 -20 -20 -20 -20 -20 -20 -20 -20 -20 -20 -20 -20 -20 -20 -20 -20 -20 -20 -20 -20 -20 -20 -20 -20 -20 -20 -20 -20 -20 -20
-20 -20 -20 -20 -20 -20 -20 -20 -20 -20 -20 -20 -20 -20 -20 -20 -20 -20 -20 -20 -20 -20 -20 -20 -20 -20 -20 -20 -20 -20 -20 -20 -20 -20 -20 -20 -20 -20 -20 -20 -20 -20 -20 -20 -20 -20 -20 -20 -20 -20 -20 -20 -20 -20

GFSWCAN_prec_radar_057.txt.gz
Reflectivity
-20 -13 16 15 20 -10 -7 -13 16 26 32 33 26 17 8 -7 27 22 -5 -20 -2 21 18 25 -1 -20 -20 -20 -20 -20 -20 2 -4 -20 -20 -20 -20 -20 -20 20 -20 -20 -20 -20 -20 -20 -20 -20 -20 -20 -20 -20 -20 -20
23 -13 15 14 19 23 18 32 33 30 28 33 22 19 4 12 20 26 8 -19 30 12 12 7 24 13 -20 -20 -20 -20 -20 -20 -17 -20 -20 -20 -20 -20 -20 -20 -20 -20 -20 -13 -20 -20 -20 -20 -20 -20 -20 -20 -20 -20
27 28 27 29 22 28 28 29 31 37 27 15 14 12 28 15 30 28 -20 -20 4 34 19 3 23 28 -20 -20 -20 -20 -20 -20 -20 -20 -20 -20 -20 -20 -20 -20 -20 -20 -17 -20 -20 -20 -20 -20 -20 -20 -20 -20 -20 -20
16 26 32 32 24 22 26 27 25 22 19 30 19 14 6 12 17 26 -12 -12 20 27 -20 23 -6 -20 -7 -20 -20 -20 -20 -20 -20 -20 -20 -20 -20 -20 -20 -20 -20 -20 -2 -8 -20 -20 -20 -20 -20 -20 -20 -20 -20 -20
-3 -18 -12 14 4 17 16 13 13 15 27 19 6 23 18 6 4 9 -18 18 10 34 9 -20 21 16 -4 -20 -20 -20 -20 -20 -20 -20 -19 -15 -20 -20 -20 -20 -20 -20 -20 -20 -20 5 1 -20 -20 -20 -20 -20 -20 -20
-12 -2 -16 3 -13 9 -18 -20 9 20 21 22 28 29 16 11 -20 -20 13 -20 -16 9 22 8 -11 -20 -10 -4 -20 -18 -20 -20 -20 -20 -20 -20 -20 -20 -20 -20 -20 -20 -20 -20 -20 -20 -20 -20 -20 -20 -20 -20 -20 -20
-20 -17 -20 -17 6 -2 -20 -20 -20 -14 5 -19 -15 -20 -17 0 -20 -20 -20 -20 0 1 36 -3 30 22 14 -15 -11 -0 -0 -20 -20 -20 -20 -0 -20 -20 -20 -20 -20 -20 -20 -20 -20 -20 -20 -20 -20 -20 -20 -20 -20 -20
-20 -20 -20 -20 -20 -20 -20 -17 -20 -20 -20 -20 -20 -20 -20 -20 -17 -20 -20 -20 -20 0 13 -14 12 21 23 19 6 11 21 -3 -17 -20 -20 -20 -20 -20 -20 -20 -20 -20 -20 -20 -20 -20 -20 -20 -20 -20 -20 -20 -20 -20
-20 5 9 11 4 -20 -20 -20 -18 -20 -20 -20 -8 22 17 -2 15 8 3 24 16 30 28 7 1 16 -20 20 -12 20 9 25 -7 -20 -20 -20 -20 -13 -20 -20 -20 -20 -20 -20 -20 -20 -20 -20 -20 -20 -20 -20 -20 -20
-20 -19 -20 13 18 13 22 12 2 -20 9 5 16 32 27 32 29 20 24 37 20 18 18 -20 -20 25 -20 -19 -5 -11 20 44 44 -2 15 -20 -20 -20 -20 -20 -20 -20 -20 -20 -20 -20 -20 -20 -20 -20 -20 -20 -20 -20
-20 11 13 16 -16 27 16 4 7 11 19 27 25 -1 -16 1 20 11 16 -14 -12 -20 -20 -20 -20 -20 -20 -20 -20 -20 -13 18 -2 -20 -18 -20 -20 -20 -20 -20 -20 -20 -20 -20 -20 -20 -20 -20 -1 6 -20 -20 -20 -20
-20 -20 -20 -20 -17 7 31 21 29 30 30 23 18 5 20 12 -3 26 -12 -1 -18 -20 -20 -20 -20 -20 -20 -20 -20 -20 -20 -14 -20 -16 -2 -18 -20 -20 -20 -20 -20 -20 -20 -20 -20 -20 -20 -13 -4 -4 17 8 10 -1
-20 -20 -20 -20 -20 -20 -16 12 -17 -18 -7 -20 -15 12 22 27 28 23 1 -3 -20 -20 -20 -6 3 -20 -20 -20 -20 -20 -19 5 1 -3 5 -9 1 -20 -20 -20 -20 -20 11 25 22 31 38 32 30 22 16 9 18 25
-13 -20 -20 -20 -20 -20 -12 -19 -10 21 22 13 8 6 22 12 -2 19 -19 -20 5 -20 -20 -15 -15 -19 -5 -6 -0 -5 15 28 14 -8 -20 -19 10 19 5 17 12 6 10 36 34 14 14 19 21 21 24 25 26 25
9 18 -2 -10 -11 -20 -20 -5 -0 24 30 24 28 16 15 18 9 0 10 -8 3 19 17 9 13 4 13 26 28 13 6 6 3 -20 -1 -4 15 13 9 12 16 20 19 11 12 18 19 21 23 24 22 15 10 2
0 8 21 21 16 17 18 28 29 26 32 24 17 18 14 14 15 10 6 9 32 27 31 31 26 26 16 -17 -18 -8 -19 -18 -9 -7 2 4 8 12 15 14 12 16 19 21 23 21 18 13 5 -9 -18 -20 -20 -11
26 10 5 12 23 24 27 28 31 29 14 2 13 19 21 18 15 12 18 19 10 15 14 16 16 18 17 8 -8 -6 -4 -1 7 -1 6 9 14 18 20 21 21 20 19 14 9 13 10 -4 -19 -3 -9 -5 7 6
33 33 32 30 12 17 24 24 23 -20 -20 3 -0 7 -4 2 -6 -19 -9 -4 -9 -18 -19 -18 -20 -15 6 -6 -20 -0 3 14 15 15 12 13 15 14 15 16 12 15 8 1 -8 8 7 6 8 6 6 3 -1 -9
16 24 31 29 20 18 23 22 19 -2 3 5 4 -7 3 5 7 9 2 -2 -3 -14 -15 2 3 -5 -16 -2 -5 5 12 13 15 17 13 13 15 16 18 18 16 9 5 8 8 4 -3 -0 5 7 7 2 -11 -20
14 21 29 19 9 -12 -18 -2 -3 -13 -2 -1 4 -11 -14 8 4 -2 3 3 2 -16 -2 -8 -4 4 6 7 11 13 16 16 17 15 15 16 19 16 17 15 12 12 3 -4 -5 -2 2 3 4 -1 -15 -20 -20 -20
12 13 3 -4 -20 -20 -20 -20 -20 0 -4 -14 -20 -20 -19 5 -5 -11 -20 -13 -18 1 8 13 11 10 10 11 12 15 14 15 14 13 12 7 13 5 5 7 6 6 2 1 -8 -4 -20 -16 -10 -19 -20 -20 -20 -20
-20 -20 -20 -20 -20 -20 -20 -20 -20 -20 -20 -20 -20 -20 -20 -20 -20 -20 -20 -20 -0 8 12 12 13 13 13 14 17 15 17 14 14 12 12 11 9 8 7 9 3 -7 -19 -12 -18 -20 -20 -20 -20 -20 -20 -20 -20 -20
-20 -20 -20 -20 -20 -20 -20 -20 -20 -20 -20 -20 -20 -20 -20 -20 -20 -20 -20 -8 1 7 11 10 13 14 13 17 16 14 16 15 12 11 10 5 3 4 -6 -15 -20 -20 -20 -20 -20 -20 -20 -20 -20 -20 -20 -20 -20 -20
-20 -20 -20 -20 -20 -20 -20 -20 -20 -20 -20 -20 -20 -20 -20 -20 -20 -20 -19 -20 0 -5 -18 3 7 8 10 10 6 7 10 9 6 3 2 -7 -20 -20 -20 -20 -20 -20 -20 -20 -20 -20 -20 -20 -20 -20 -20 -20 -20 -20
-20 -20 -20 -20 -20 -20 -20 -20 -20 -20 -20 -20 -20 -20 -20 -20 -20 -20 -20 -20 -18 -18 -17 -16 -15 -1 1 5 4 3 0 -7 -16 -20 -20 -20 -20 -20 -20 -20 -20 -20 -20 -20 -20 -20 -20 -20 -20 -20 -20 -20 -20 -20
-20 -20 -20 -20 -20 -20 -20 -20 -20 -20 -20 -20 -20 -20 -20 -20 -20 -20 -10 -20 -20 -19 -19 -20 -18 -20 -20 -20 -20 -20 -20 -20 -20 -20 -20 -20 -20 -20 -20 -20 -20 -20 -20 -20 -20 -20 -20 -20 -20 -20 -20 -20 -20 -20
-20 -20 -20 -20 -20 -20 -20 -20 -20 -20 -20 -20 -20 -20 -20 -20 -20 -14 -20 -20 -20 -20 -20 -20 -20 -20 -20 -20 -20 -20 -20 -20 -20 -20 -20 -20 -20 -20 -20 -20 -20 -20 -20 -20 -20 -20 -20 -20 -20 -20 -20 -20 -20 -20
-20 -20 -20 -20 -20 -20 -20 -20 -20 -20 -20 -20 -20 -20 -20 -20 -20 -20 -20 -20 -20 -20 -20 -20 -20 -20 -20 -20 -20 -20 -20 -20 -20 -20 -20 -20 -20 -20 -20 -20 -20 -20 -20 -20 -20 -20 -20 -20 -20 -20 -20 -20 -20 -20
-20 -20 -20 -20 -20 -20 -20 -20 -20 -20 -20 -20 -20 -20 -20 -20 -20 -20 -20 -20 -20 -20 -20 -20 -20 -20 -20 -20 -20 -20 -20 -20 -20 -20 -20 -20 -20 -20 -20 -20 -20 -20 -20 -20 -20 -20 -14 -20 -20 -20 -20 -20 -20 -20
-20 -20 -20 -20 -20 -20 -20 -20 -20 -20 -20 -20 -16 -18 -20 -20 -20 -20 -20 -20 -20 -20 -20 -20 -20 -20 -20 -20 -20 -20 -20 -20 -20 -20 -20 -20 -20 -20 -20 -20 -20 -20 -20 -20 -20 -20 -20 -20 -20 -20 -20 -20 -20 -20
-20 -20 -20 -20 -20 -20 -20 -20 -20 -20 -20 -20 -20 -20 -20 -20 -20 -20 -20 -20 -20 -20 -20 -20 -20 -20 -20 -20 -20 -20 -20 -20 -20 -20 -20 -20 -20 -20 -20 -20 -20 -20 -20 -20 -20 -20 -20 -20 -20 -20 -20 -20 -20 -20
-20 -20 -20 -20 -20 -20 -20 -20 -20 -20 -20 -20 -20 -20 -20 -20 -20 -20 -20 -20 -20 -20 -20 -20 -20 -20 -20 -20 -20 -20 -20 -20 -20 -20 -20 -20 -20 -20 -20 -20 -20 -20 -20 -20 -20 -20 -20 -20 -20 -20 -20 -20 -20 -20
-20 -20 -20 -20 -20 -20 -20 -20 -20 -20 -20 -20 -20 -20 -20 -20 -20 -20 -20 -20 -20 -20 -20 -20 -20 -20 -20 -20 -20 -20 -20 -20 -20 -20 -20 -20 -20 -20 -20 -20 -20 -20 -20 -20 -20 -20 -20 -20 -20 -20 -20 -20 -20 -20

GFSWCAN_prec_radar_063.txt.gz
Reflectivity
11 -14 -11 0 24 16 21 20 14 10 14 6 26 15 4 19 31 38 15 -20 6 23 18 6 -2 -20 -20 -14 13 -2 16 14 14 12 -15 -20 -20 -20 -20 -13 -9 -20 -5 -20 11 16 -20 -18 6 -12 -20 -20 -20 -20
-3 9 -20 -13 25 18 19 15 15 -20 -6 9 11 9 -18 18 31 30 20 7 4 22 28 22 26 2 -20 -20 -20 -19 30 -20 -20 -20 -20 -20 8 -15 -20 -20 5 29 -8 24 -18 -20 -20 -11 -3 -20 -20 -20 -20 -20
5 12 3 -20 18 15 19 16 5 -19 9 17 9 -14 17 29 37 25 20 15 18 13 26 -1 -20 -20 -18 -2 18 16 10 -18 -20 -20 -20 -20 -20 -20 -20 -20 -20 -20 -3 -20 -20 -20 -20 -20 -17 -20 -20 -20 -20 -20
17 30 18 -20 -20 23 29 15 11 9 10 12 -1 7 24 30 38 20 20 16 14 29 27 22 -20 -20 -14 -20 14 1 -10 17 6 -20 16 7 -19 -20 -20 -20 -20 -20 -20 -20 -20 -20 -20 -20 -20 -20 -17 -20 -20 -20
17 13 20 24 21 -15 3 4 -3 5 4 25 28 31 30 35 14 12 19 18 17 13 0 19 -20 -20 -20 -20 3 4 -20 10 -5 11 -9 -20 -20 -20 -20 -20 -20 -20 -20 -20 -20 -7 5 5 15 7 -19 -7 -20 -20
8 12 6 18 26 22 25 30 32 32 32 30 30 34 37 23 14 30 34 29 14 20 17 -10 4 -10 -20 -20 -18 22 20 -2 16 15 -2 -20 -20 -20 -20 -20 -20 -20 -20 -20 -20 -19 -18 -20 -20 -20 -20 -20 -20 -20
-13 7 6 7 2 21 27 29 30 31 33 27 12 16 27 32 32 14 11 -2 -17 -20 -14 -9 2 -16 4 3 -17 -14 20 18 24 27 19 -9 -20 -20 -20 -20 -20 -20 -20 -20 -20 -20 -20 -20 -17 -19 -20 -20 -20 -20
7 -1 15 -3 7 -7 6 14 8 18 23 32 20 26 33 29 20 -2 -7 -20 -20 -20 -20 -1 0 1 -5 -1 31 26 15 20 -2 8 -6 -7 -2 21 7 -20 -20 -20 -20 -20 -20 -20 -20 -20 -20 -20 -20 -20 -20 -20
-20 -18 -14 13 -11 -2 10 18 21 18 20 17 19 14 11 20 -9 -7 -20 -20 -20 -16 -5 -17 -13 2 18 4 8 28 22 26 25 10 7 15 4 15 -17 -20 -20 -20 -20 -20 -20 -20 -20 -20 -20 -20 -20 -20 -20 -20
-20 -20 -20 -20 15 23 1 7 7 -4 -7 7 -5 -2 1 7 -20 -19 -14 -6 -20 -20 -1 -8 15 21 -4 -3 18 25 38 23 -3 12 20 18 8 -20 -20 -20 -20 -20 -20 -20 -20 -20 -20 -20 -20 -20 -20 -20 -20 -20
-20 -20 -20 -20 -20 -14 -19 -20 -20 -20 -20 6 18 13 11 -20 -9 6 2 -17 -2 -8 -8 -15 -2 5 -5 11 15 22 1 0 20 12 11 -8 -20 -6 -20 -20 -20 -20 -20 -20 -20 -20 -20 -20 -20 -20 -20 -20 -20 -20
-14 -20 -3 -12 -20 16 16 5 -20 15 6 3 -6 1 -10 -10 1 4 -3 7 4 -19 11 10 6 13 32 35 25 15 32 20 9 -20 -1 24 29 17 -1 -5 -20 -20 -20 -20 -20 -20 -20 -20 -20 -20 -20 -20 -20 -20
-5 -20 1 -16 -16 -12 -20 -20 -20 -15 -20 8 21 -12 22 25 16 17 -6 18 18 1 -10 4 25 23 39 42 32 24 13 -4 -15 30 20 6 4 1 0 -6 -8 -12 -14 -2 -8 -20 -20 -20 -10 -6 -3 -5 -19 -18
-20 -20 -18 -18 -20 -20 -20 -13 0 5 4 -20 8 -9 14 15 8 3 -18 15 3 -18 6 18 13 22 36 15 10 -0 -9 2 17 9 7 3 5 24 10 -1 -3 6 14 18 18 21 19 6 6 3 9 16 19 20
-20 -10 -8 -20 -20 -20 -20 -20 -20 -20 -20 -9 -20 -1 2 7 7 2 17 18 -15 -0 10 4 0 8 35 11 5 24 16 6 4 8 7 6 5 10 9 1 3 -1 10 16 14 -3 -2 -4 2 6 6 16 18 18
-20 -20 -18 -20 -20 -20 -20 -20 -20 -20 3 -12 -14 -20 -19 -5 2 10 5 -16 -1 -15 -5 4 32 19 10 16 3 -1 6 7 12 11 7 5 0 3 3 2 4 7 8 5 2 -8 -13 -20 -19 1 6 0 -2 -9
-20 -12 -20 -20 -20 -17 -7 -20 -20 -9 1 4 9 10 2 3 5 7 13 14 7 19 -15 -4 -20 -15 2 -0 1 1 7 11 13 13 10 10 7 8 7 5 9 7 6 6 4 3 3 1 -13 -17 -14 3 -13 -9
-2 -2 -20 -20 -20 -18 -20 -15 -14 5 15 16 15 14 14 14 7 1 2 -2 -8 -6 -20 -0 -15 -20 -14 -5 0 6 7 10 6 8 9 8 11 14 13 11 11 10 9 12 9 9 7 9 9 9 1 -3 -10 -15
18 12 14 18 21 10 12 23 10 10 15 16 18 20 20 21 21 20 15 12 10 7 7 16 18 15 8 7 17 16 17 11 6 10 10 12 15 15 15 11 9 9 9 13 13 11 11 8 5 3 3 -9 -3 -2
30 27 23 22 -4 10 5 14 11 1 9 11 15 16 18 17 19 21 20 19 20 21 22 19 18 17 16 15 13 8 16 11 7 7 9 13 16 15 15 14 13 14 8 5 5 4 -0 -16 -20 -20 -13 -3 -2 0
19 8 10 -19 -20 -20 -20 -14 6 -4 2 10 8 -17 -0 -20 -7 -4 -1 3 3 2 3 10 8 7 8 9 10 9 6 3 9 9 10 10 15 14 14 14 12 9 4 3 -4 -5 -9 -2 -2 -2 1 2 1 2
-12 -19 -20 -20 -20 -20 -19 -20 8 12 10 -0 -20 -20 1 -16 -20 -20 -20 -20 5 10 8 4 6 4 -4 -1 2 3 5 5 7 3 5 5 6 5 5 7 1 -4 -7 -8 -17 -20 -20 -20 -20 -20 -7 -2 -6 -20
-20 -20 -20 -11 -16 -20 -20 -18 -1 -8 6 1 -2 -9 -3 -1 -17 -20 -18 -3 7 11 11 5 5 4 3 6 -0 2 7 5 3 5 7 6 5 4 -3 -14 -17 -20 -20 -20 -20 -20 -20 -20 -20 -20 -20 -20 -13 -4
-20 -20 -20 -20 -20 -20 -20 -20 -20 -0 -2 -1 -3 -1 -2 -3 -19 -20 -0 5 6 5 0 4 10 3 -9 -8 -18 -5 2 -0 -2 -2 -0 -6 -18 -20 -20 -20 -20 -20 -20 -20 -20 -20 -20 -8 -20 -20 -20 -20 -20 -4
-20 -20 -20 -20 -20 -20 -20 -20 -3 -4 -0 -1 -2 -0 -1 -13 -2 0 1 4 4 3 5 2 -2 3 -1 1 -4 -14 -18 -19 -20 -20 -20 -20 -20 -20 -20 -20 -20 -20 -20 -3 -3 -4 -4 -4 -5 -5 -20 -20 -20 -20
-20 -11 -16 -20 -17 -20 -10 -15 -14 -2 -1 -1 -1 -14 -0 -20 -17 1 2 7 3 2 4 7 4 -12 -20 -20 -20 -20 -20 -20 -20 -20 -20 -20 -20 -20 -20 -20 -20 -20 -6 -0 -1 -1 -20 -20 -20 -20 -20 -15 -20 -18
-20 -17 -20 -20 -20 -20 -10 -7 -20 -18 -13 -2 -1 -18 -20 -20 -3 3 2 3 1 1 1 1 -17 -20 -20 -20 -20 -20 -20 -20 -20 -20 -20 -20 -20 -20 -20 -20 -20 -2 -8 -2 -2 -3 -20 -20 -20 -20 -20 -5 -4 -2
-20 -20 -20 -20 -20 -20 -20 -20 -20 -11 -1 -6 -20 -20 -20 -6 0 7 3 1 1 -4 -18 -20 -20 -20 -20 -20 -8 -5 -20 -20 -20 -20 -20 -20 -20 -20 -20 -20 -20 -20 -20 -20 -1 -12 -20 -20 -20 -20 -20 -5 -5 -1
-20 -20 -20 -20 -20 -20 -20 -20 -14 -14 -3 -13 -2 -7 -1 -2 8 4 5 3 2 -2 -20 -20 -18 -20 -18 -20 -20 -20 -20 -20 -20 -20 -20 -20 -20 -18 -5 -4 -2 -4 -2 -0 -20 -14 -15 -20 -20 -20 -18 -3 -1 0
-20 -15 -20 -20 -20 -20 -0 0 0 1 -4 -6 -17 -11 2 3 1 5 4 3 3 2 3 0 0 2 0 -1 -20 -20 -20 -20 -20 -5 -16 -16 -2 -2 -3 -2 -1 -2 -2 -2 -5 -7 -20 -14 -20 -14 -20 -20 -11 -11
-20 -20 -20 -20 -12 3 3 2 -6 -1 -1 1 -2 -3 1 2 2 0 -0 1 -1 -2 -2 -2 -3 -0 -11 -20 -20 -20 -17 -10 -20 -20 -20 -6 -3 -1 -4 -4 -3 -2 -2 -4 -20 -20 -20 -20 -20 -20 -20 -20 -20 -20
-20 -20 -20 -20 -11 1 -3 3 2 3 2 2 1 -5 -1 1 -1 1 -0 1 2 1 -19 0 1 -0 -19 -20 -20 -20 -20 -20 -5 -8 -7 -3 -0 -3 -2 -3 -6 -3 -11 -20 -20 -20 -20 -20 -20 -20 -20 -20 -20 -20
-20 -20 -20 -20 -7 -2 -1 3 -2 -1 -0 -1 0 0 -1 1 -1 -4 -17 -6 -1 0 1 1 1 -1 -20 -20 -20 -20 -14 -6 -20 -18 -20 -20 -20 -20 -10 1 -2 -4 -20 -20 -20 -20 -20 -20 -20 -20 -20 -20 -20 -20

GFSWCAN_prec_radar_069.txt.gz
Reflectivity
10 13 22 8 -1 14 14 -2 -6 -12 15 14 12 9 13 12 13 22 35 21 39 27 -19 -20 -20 -16 5 -7 -20 -20 -20 -20 -20 -18 -14 -17 -18 -20 17 -16 -20 -20 -20 -15 -20 -20 -20 -20 17 18 -10 -20 -8 -20
12 21 17 16 11 14 11 13 15 11 13 19 14 16 5 26 22 28 32 21 42 23 -11 -20 -20 -7 -19 -20 -20 -20 -20 -20 -20 -18 36 4 -20 -20 -20 -20 -20 -20 -20 -20 -20 -20 -20 14 21 18 1 -20 -19 -20
19 20 14 16 -10 -20 24 19 16 20 31 17 30 31 21 21 23 33 19 32 39 13 -14 -20 -14 -20 -20 -20 -20 7 -20 -20 -20 -20 -18 14 18 -14 -20 -20 -20 -20 -19 16 -1 -20 6 -20 1 -2 19 -1 -20 -11
15 15 16 11 -20 -20 9 4 13 7 8 2 22 16 23 20 33 27 27 36 26 35 -1 -20 -20 -20 -19 -20 -20 -19 -10 -20 -20 13 21 30 1 -20 -20 -20 -20 -20 -20 3 -13 -15 27 -2 41 12 -19 -16 -20 -20
22 25 22 8 -12 3 -2 1 9 11 7 -11 17 20 12 12 24 18 15 27 4 22 -11 -20 -11 14 42 -2 13 -20 -20 -20 -20 23 6 36 -1 -4 -20 -20 -20 -20 -20 -13 -1 -18 -20 -17 11 25 11 24 1 -20
24 19 16 6 -11 12 20 20 15 18 26 29 27 30 34 18 20 29 44 32 31 27 -20 10 6 15 -19 -20 -20 -20 -20 -20 -19 18 2 30 -19 -11 -20 -20 -20 -20 -20 -20 -20 -20 -20 9 1 8 -14 -13 -16 5
28 18 23 6 28 -6 -3 2 5 12 2 5 10 13 7 15 -0 7 -4 33 13 -19 3 20 -20 -20 -20 -20 -20 -20 -20 -20 27 26 -5 -16 21 25 -6 -20 -20 -20 -20 -20 -20 -20 -16 -20 -20 -20 -10 -20 -13 -20
17 21 8 22 22 12 5 -20 -20 6 10 20 19 31 36 27 16 -20 0 -16 -20 -2 21 -6 18 -3 -20 -20 -20 -20 -20 -20 -20 16 20 26 18 19 1 -14 -20 -20 -20 -20 -20 -20 -20 -20 -20 -20 -20 -20 -20 -20
18 19 12 26 28 28 28 10 1 14 20 30 30 16 18 10 -20 -20 -20 -17 28 12 -20 -20 -20 -14 16 -7 -20 -20 22 -5 8 -17 10 32 24 37 16 -20 -20 -20 -20 -20 -20 -20 -20 -20 -20 -20 -20 -20 -20 -20
23 25 22 32 32 35 33 33 33 33 36 31 23 11 21 15 9 18 24 6 -20 -20 -20 -20 -20 -20 -19 23 16 15 16 -20 -20 -20 20 41 42 15 25 12 2 -20 -20 -20 -20 -20 -20 -20 -20 -20 -20 -20 -20 -20
23 22 21 24 25 21 24 13 -20 -20 -20 -20 -20 13 12 1 -20 -20 -20 -20 -20 -20 -20 -20 -20 -20 -20 -20 0 -14 -18 -10 -20 -19 -20 1 20 20 13 -17 -20 -20 -20 -20 -20 -20 -20 -20 -20 -20 -20 -20 -20 -20
-15 16 -9 -4 -5 -17 -20 -7 -5 -5 -5 -14 -20 -20 -20 -20 -20 -20 -20 -20 -20 -20 -20 -20 -20 -20 -20 -20 -6 28 12 11 -20 -20 -20 -16 0 -11 -4 -19 -20 -20 -20 -20 -20 -20 -20 -20 -20 -20 -20 -20 -20 -20
-20 -20 -20 -20 -20 -19 -20 -20 -20 -20 -20 -11 -19 -20 -20 -20 -8 -20 -20 -20 -20 -20 -3 -19 -20 -20 -20 -20 -20 12 -17 -18 16 35 16 8 4 -14 -20 -20 -20 -19 -20 -20 -20 -20 -20 -20 -20 -14 -8 1 4 8
-20 -20 -20 -20 -20 -20 -20 -20 -20 -20 -20 -20 -20 -20 -19 -20 -19 -18 -17 -16 -9 5 -2 -15 -20 -11 -19 -20 -20 -20 -10 -9 2 29 11 4 1 1 -2 -3 -20 -7 7 -8 -2 10 11 -0 -1 9 11 13 10 9
-20 -20 -20 -20 -20 -20 -20 -20 -20 -20 -20 -20 -20 -17 -20 3 -11 -8 -11 -12 -16 -10 1 1 -12 -13 -11 -13 -18 -4 16 -3 -14 7 21 4 5 -3 -3 9 12 17 17 13 11 14 15 13 10 9 8 12 12 14
-20 -20 -20 -20 -20 -20 -20 -20 -20 -20 -20 -20 -20 -20 -20 -20 -20 -20 -20 -20 -17 -15 -2 23 22 8 3 -20 -5 13 0 -15 -1 10 3 7 1 9 8 10 16 17 19 18 17 18 18 16 15 12 12 12 13 8
-13 -20 -20 -20 -20 -20 -20 -20 -20 -20 -20 -14 -12 -20 -20 -20 -12 -7 -2 -19 -11 -6 -19 7 -19 -10 7 6 -3 -1 2 19 24 16 2 -2 2 5 12 17 20 20 18 17 15 11 7 9 8 5 7 11 0 -5
-20 -20 -20 -20 -20 -20 -20 -20 -20 -20 -20 -6 -3 -15 2 -20 -13 -20 -15 -12 -12 16 3 -20 -20 -20 -20 -20 -20 -3 2 -2 0 6 19 18 14 15 19 21 19 15 16 16 13 12 7 -0 -13 -1 -1 -3 -9 -19
-20 -20 -20 -20 -20 -20 -20 -20 -20 -20 -7 5 5 2 9 5 -4 -3 -13 -20 -20 -20 -20 -20 -20 -20 -10 -13 -18 -9 8 -9 10 15 13 20 20 22 23 20 15 15 13 12 10 4 0 -3 -2 -16 -17 -16 -8 -13
-2 -20 -20 -20 -20 -20 -20 -20 -16 -18 5 7 11 -1 -5 3 -12 -13 -20 -20 -20 -20 -20 -20 -10 -4 -2 2 -1 9 11 6 4 2 10 14 15 12 15 14 10 8 -2 -12 -16 -17 -16 -16 -16 -20 -20 -20 -20 -20
-20 -20 -20 -20 -20 -20 -20 5 -12 -20 -18 8 -19 -13 -20 -17 -20 -20 -20 -20 -10 4 4 -10 -19 -6 -20 -20 -19 -16 -18 -19 -20 -20 -4 -2 8 4 5 8 8 9 3 3 -5 -3 -12 -1 -20 -20 -20 -20 -20 -20
-20 -20 -20 -20 -20 -20 -20 -20 5 4 -20 -15 -18 -20 -5 -19 -20 -20 -20 -20 -5 -20 4 -4 -3 -20 -20 -17 -9 -18 -17 -20 -18 -15 -8 -7 -8 -4 -3 1 0 -1 -0 -2 -5 -14 -20 -20 -20 -4 -18 -20 -20 -20
-20 -20 -20 -20 -20 -20 -20 -20 -20 -8 -20 -7 -16 -20 -19 -20 -11 -20 -12 2 11 3 -20 -20 -19 -18 -3 -1 -10 -18 -11 -14 -10 -5 1 3 3 2 -2 -7 -17 -20 -16 -8 -20 -20 -20 -20 -20 -20 -20 -20 -20 -20
-20 -20 -20 -20 -20 -20 -20 -20 -12 -15 -20 -20 -20 -20 -20 -6 -20 -20 3 2 10 -14 12 11 -13 -20 -20 -20 -20 -17 0 -3 -5 -19 -20 -20 -20 -20 -20 -20 -20 -1 -20 -20 -20 -20 -20 -20 -20 -20 -20 -20 -20 -20
-20 -20 -20 -20 -20 -20 -20 -20 -20 -20 -20 -20 -20 -20 -20 -20 -20 -20 2 3 -20 4 -20 -20 -6 -19 -20 -6 -5 -6 -20 -20 -20 -20 -6 -12 -20 -20 -20 -20 -20 -20 -20 -20 -20 -20 -20 -20 -20 -20 -20 -20 -20 -20
-20 -20 -20 -13 -20 -20 -19 -15 -20 -10 -20 -16 -13 -2 -20 -20 -20 -20 2 -10 -20 -20 -11 -10 -20 -20 -20 -20 -20 -20 -20 -20 -20 -20 -20 -20 -20 -20 -20 -20 -20 -18 -20 -20 -20 -20 -20 -20 -20 -20 -20 -20 -20 -20
-20 -20 -20 -20 -19 -20 -20 -20 -20 -20 -20 -17 -2 -20 -20 -20 -20 -12 -12 -20 -20 -20 -20 -20 -20 -20 -20 -20 -20 -20 -20 -20 -20 -20 -20 -20 -20 -20 -20 -20 -20 -20 -20 -20 -20 -20 -20 -20 -20 -20 -20 -20 -20 -20
-20 -20 -20 -20 -20 -20 -20 -20 -20 -20 -20 -20 -20 -20 -20 -20 -18 -17 -18 -20 -20 -20 -20 -20 -20 -20 -20 -20 -20 -20 -20 -20 -20 -20 -20 -20 -20 -20 -20 -20 -20 -20 -20 -20 -20 -20 -20 -20 -20 -20 -20 -20 -20 -20
-19 -20 -20 -20 -20 -20 -20 -20 -20 -20 -20 -20 -20 -20 -20 -13 -16 -18 -6 -20 -20 -20 -20 -20 -20 -20 -20 -20 -20 -20 -20 -20 -20 -20 -20 -20 -20 -20 -20 -20 -20 -20 -20 -20 -20 -20 -20 -20 -20 -20 -20 -20 -20 -20
-13 -20 -20 -20 -20 -20 -11 -20 -1 -13 -20 -20 -20 -18 -20 -15 -16 -20 3 -10 -4 -19 -20 -20 -14 -20 -20 -20 -20 -20 -20 -20 -20 -20 -20 -20 -20 -20 -20 -20 -20 -20 -20 -20 -20 -20 -20 -20 -20 -20 -20 -20 -20 -20
-20 -20 -20 -20 -18 -18 -20 -20 -20 -20 -20 -20 -20 -20 -20 -20 -20 -20 -20 -20 -20 -20 -20 -20 -20 -20 -20 -20 -20 -20 -20 -20 -20 -20 -20 -20 -20 -20 -20 -20 -20 -20 -20 -20 -20 -20 -20 -20 -20 -20 -20 -20 -20 -20
-20 -20 -20 -20 -19 -20 -20 -6 -19 -20 -20 -20 -20 -20 -20 -20 -20 -20 -20 -20 -20 -20 -20 -20 -20 -20 -20 -20 -20 -20 -20 -20 -20 -20 -20 -20 -20 -20 -20 -20 -20 -20 -20 -20 -20 -20 -20 -20 -20 -20 -20 -20 -20 -20
-20 -20 -20 -20 -20 -20 -20 -20 -20 -15 -20 -20 -20 -20 -20 -20 -20 -20 -20 -20 -20 -20 -20 -20 -20 -20 -20 -20 -20 -20 -20 -20 -20 -20 -20 -20 -20 -20 -20 -20 -20 -20 -20 -20 -20 -20 -20 -20 -20 -20 -20 -20 -20 -20

GFSWCAN_prec_radar_072.txt.gz
Reflectivity
-1 -12 10 16 9 20 15 17 20 9 16 -4 7 9 2 13 17 21 35 29 29 37 11 -20 -20 -20 -20 2 -7 -20 -20 -20 -20 -20 -20 -20 -20 -20 -20 -20 -20 16 18 -20 -0 -20 3 -20 -10 13 11 -6 -3 17
10 -5 19 15 -13 13 14 11 21 31 21 9 14 11 10 13 17 18 28 19 19 29 29 17 -20 -20 -10 -20 -1 -20 -20 -20 -20 -20 -20 -20 -20 -20 -20 -20 -20 -9 -19 21 -10 -20 -20 -20 -20 -8 3 -19 -20 -19
16 18 26 7 11 4 7 17 17 18 6 28 17 11 9 15 15 21 23 1 8 24 31 13 14 -20 -20 -20 -20 -20 -20 -20 -20 -20 -20 -20 -20 -20 -20 -20 -20 -20 -7 -20 -20 -20 -20 -20 -20 -20 14 17 -7 -20
25 17 6 -5 16 0 -20 10 10 16 11 24 26 13 7 12 13 21 14 -17 -2 24 36 9 -20 -20 -7 -15 -20 -20 -20 -20 -20 -20 -20 -20 -11 -6 -18 -20 -20 -20 -20 -20 -20 -20 -20 -20 -20 -20 -20 -20 -13 -12
20 1 -19 4 -9 -19 15 17 20 14 14 1 23 18 20 17 23 20 3 -18 -5 34 31 10 -20 -20 -20 -20 -10 18 -20 -20 -8 -16 -20 -20 -20 -15 22 6 -20 -20 -20 -20 -20 -20 -9 -16 -16 -2 -2 -6 28 -15
16 17 15 -16 -20 -7 7 14 12 4 32 29 25 27 21 28 20 25 20 18 30 40 -7 4 -17 -20 -10 -2 -20 -20 -20 -20 -19 16 -20 -19 -20 14 17 -20 -20 -20 -20 -20 -20 -20 -20 -20 -20 -20 -17 1 28 23
13 19 -4 -6 -20 -3 28 4 -6 10 11 -8 10 24 -1 10 37 21 14 20 40 25 -19 -20 8 -18 -20 21 31 30 31 12 5 16 -20 -20 14 -20 28 29 -18 -20 -20 -20 -20 -20 -20 -20 -20 -19 -19 8 13 3
19 20 12 -17 -20 -12 20 24 22 26 17 12 15 12 19 25 34 15 6 15 -19 -0 -20 -20 33 -2 8 7 -19 4 -17 -20 -20 -20 -20 -20 8 -6 24 36 -14 -20 -20 -20 -20 -20 -20 -20 -20 -20 13 2 11 13
25 22 27 14 14 25 22 5 1 26 28 28 35 38 34 39 34 35 32 8 -17 -20 -20 -20 -20 16 -20 -20 -20 -20 -20 -20 -20 -20 -20 -16 11 23 2 18 34 -20 -20 -20 10 -7 -20 -20 -20 -20 -2 4 1 -11
33 27 12 13 20 28 34 31 22 30 36 29 27 31 28 34 29 27 30 16 -20 -20 -20 -20 -20 -20 -20 -20 -20 -20 -20 -20 -20 -20 -2 -7 -15 -1 23 37 23 -0 -6 -18 6 22 -19 20 21 17 15 -11 -11 -20
18 17 -5 -15 -20 -20 5 11 15 -4 -5 10 -8 18 7 3 -12 -10 -7 -13 -18 -20 -20 -20 -20 -20 -20 -20 -20 -20 -20 -20 -20 -11 14 -12 -12 6 17 31 16 1 -18 -20 -11 10 -10 -20 -20 -20 -20 -20 -20 -20
-5 -1 -10 -12 -12 -18 -20 -20 -20 -20 -20 -20 -20 -20 -20 -18 -20 -20 -20 -20 -20 -20 -20 -20 -20 -20 -20 -20 -20 -19 6 -6 -20 3 -20 -20 6 -20 3 -5 13 32 23 -8 -20 -20 -20 -20 -20 -20 -20 -20 -20 -20
-20 -20 -20 -20 -20 -20 -20 -20 -20 -20 -20 -20 -20 -20 -20 -20 -20 -20 -20 -20 -20 -3 -20 -20 -20 -20 -20 -16 -20 -8 -15 -18 21 15 -19 3 -16 -18 -7 -10 -20 9 -6 -20 -20 -20 -20 -20 -20 -20 -20 -19 -20 -18
-20 -20 -20 -20 -20 -20 -20 -20 -20 -20 -20 -20 -20 -20 -20 -20 -20 -17 -19 -20 -20 -20 -16 -20 -20 -18 5 -20 9 -16 2 12 1 -20 -17 0 -17 0 -3 1 -20 -8 -16 -18 -14 -14 -14 -14 6 11 15 19 17 15
-20 -20 -20 -20 -20 -20 -20 -20 -20 -20 -20 -20 -20 -20 -20 -18 -20 -19 -20 -20 -16 -18 -18 -20 -8 -12 -19 -20 -19 -2 -19 -20 -20 -18 5 -6 -1 -13 -18 -11 -19 -18 -16 -15 -14 -15 1 11 13 17 19 19 15 14
-20 -20 -20 -20 -20 -20 -20 -20 -20 -20 -20 -20 -20 -20 -20 -20 -20 -20 -20 -20 -20 -20 -18 18 1 13 -20 -20 -20 -20 -20 -11 8 -12 -8 0 20 11 14 14 8 7 6 5 6 6 11 13 14 17 18 18 18 17
-20 -20 -20 -20 -20 -20 -20 -20 -20 -20 -20 -20 -20 -20 -20 -20 -20 -20 -19 -20 -19 -18 -20 -9 -20 -9 11 -0 -19 -5 -18 -16 -20 1 13 8 -3 11 16 10 9 11 18 18 15 18 17 17 18 17 15 17 14 13
-20 -20 -20 -20 -20 -20 -20 -20 -20 -20 -20 -20 -17 3 -20 -20 -20 -20 -20 -20 -20 -20 -20 -17 -20 -20 -20 -20 -20 -17 -19 -18 -19 -6 10 18 16 9 6 14 16 14 12 17 17 16 14 14 11 8 7 5 3 -5
-20 -20 -20 -20 -20 -20 -20 -20 -20 -20 3 8 -18 -20 -19 -8 -15 -17 -18 -19 -14 4 -11 -20 -20 -20 -20 -20 -20 -15 -20 -20 -19 -16 -4 -0 9 13 9 4 10 15 14 13 13 12 10 4 -3 -4 -2 -7 -18 -13
-20 -20 -20 -20 -20 -20 -20 -20 -20 -20 -15 -4 -7 -17 -20 -11 -17 -20 -20 -20 -20 -20 -20 -20 -20 -20 -20 -20 -19 -17 -20 -20 -20 -20 -20 -14 5 6 11 11 13 16 14 10 7 9 10 7 -2 -9 -16 -19 -20 -20
-20 -20 -20 -20 -20 -20 -20 -20 -20 -20 -20 9 -6 -20 -20 -20 -20 -20 -20 -20 -20 1 -20 -20 -20 -20 -20 -11 -17 -20 -20 -20 -20 -20 -20 -20 -3 -12 -2 4 -2 -13 -6 2 2 -5 -20 -20 -20 -20 -20 -20 -20 -20
-20 -20 -20 -20 -20 -20 -20 -20 -20 -20 -20 -20 -20 -20 -20 -20 -20 -20 -20 -20 -6 -6 -1 -19 -20 -20 -20 -20 -16 -17 -15 -20 -20 -19 -15 -11 -7 -7 -15 -18 -18 -13 -13 -13 -18 -20 -20 -20 -20 -20 -20 -20 -20 -20
-20 -20 -20 -20 -20 -20 -20 -20 -20 -14 -20 -20 -20 -20 -20 -20 -20 -20 -20 -5 5 -3 -20 -20 -20 -20 -13 -15 -20 -20 -20 -20 -20 -19 -18 -18 -19 -19 -20 -19 -18 -19 -20 -5 -20 -20 -20 -20 -20 -20 -20 -20 -20 -20
-20 -20 -20 -20 -20 -20 -20 -20 -20 -20 -20 -20 -20 -20 -3 -20 -20 -20 -19 -15 3 1 -8 -9 -20 -20 -20 -20 -20 -20 -17 -15 -18 -18 -18 -20 -20 -20 -20 -20 -20 -20 -20 -20 -20 -20 -20 -20 -20 -20 -20 -20 -20 -20
-20 -20 -20 -20 -20 -20 -20 -20 -20 -20 -20 -20 -20 -20 -20 -20 -20 -20 -20 -20 -20 -20 -20 -20 -20 -20 -20 -20 -20 -20 -20 -20 -20 -20 -19 -20 -20 -20 -20 -20 -20 -20 -20 -20 -20 -20 -20 -20 -20 -20 -20 -20 -20 -20
-20 -20 -20 -20 -20 -20 -20 -20 -20 -20 -20 -20 -20 -18 -20 -20 -20 -20 -20 -20 -20 -20 -20 -20 -20 -20 -20 -20 -20 -20 -20 -20 -20 -20 -20 -20 -20 -20 -20 -20 -20 -20 -20 -20 -20 -20 -20 -20 -20 -20 -20 -20 -20 -20
-20 -20 -20 -20 -20 -20 -20 -20 -20 -20 -20 -20 -20 -20 -20 -20 -20 -13 -20 -20 -20 -20 -20 -20 -20 -20 -20 -20 -20 -20 -20 -20 -20 -20 -20 -20 -20 -20 -20 -20 -20 -20 -20 -20 -20 -20 -20 -20 -20 -20 -20 -20 -20 -20
-20 -20 -20 -20 -20 -20 -20 -20 -20 -20 -20 -20 -20 -20 -20 -20 -18 -20 -20 -20 -20 -20 -20 -20 -20 -20 -20 -20 -20 -20 -20 -20 -20 -20 -20 -20 -20 -20 -20 -20 -20 -20 -20 -20 -20 -20 -20 -20 -20 -20 -20 -20 -20 -20
-20 -20 -20 -20 -20 -20 -20 -20 -20 -20 -20 -20 -20 -20 -20 -17 -20 -20 -20 -20 -20 -20 -20 -20 -20 -20 -20 -20 -20 -20 -20 -20 -20 -20 -20 -20 -20 -20 -20 -20 -20 -20 -20 -20 -20 -20 -20 -20 -20 -20 -20 -20 -20 -20
-20 -20 -20 -20 -20 -20 -20 -20 -20 -20 -20 -20 -15 -10 -20 -20 -18 -20 -20 -20 -20 -20 -20 -20 -20 -20 -20 -20 -20 -20 -20 -20 -20 -20 -20 -20 -20 -20 -20 -20 -20 -20 -20 -20 -20 -20 -20 -20 -20 -20 -20 -20 -20 -20
-20 -20 -20 -20 -20 -20 -20 -20 -20 -20 -20 -20 -20 -20 -20 -20 -20 -20 -20 -20 -20 -20 -20 -20 -20 -20 -20 -20 -20 -20 -20 -20 -20 -20 -20 -20 -20 -20 -20 -20 -20 -20 -20 -20 -20 -20 -20 -20 -20 -20 -20 -20 -20 -20
-20 -20 -20 -20 -20 -20 -20 -20 -20 -20 -20 -20 -20 -20 -20 -20 -20 -20 -20 -20 -20 -20 -20 -20 -20 -20 -20 -20 -20 -20 -20 -20 -20 -20 -20 -20 -20 -20 -20 -20 -20 -20 -20 -20 -20 -20 -20 -20 -20 -20 -20 -20 -20 -20
-20 -20 -20 -20 -20 -20 -20 -20 -20 -20 -20 -20 -20 -20 -20 -20 -20 -20 -20 -20 -20 -20 -20 -20 -20 -20 -20 -20 -20 -20 -20 -20 -20 -20 -20 -20 -20 -20 -20 -20 -20 -20 -20 -20 -20 -20 -20 -20 -20 -20 -20 -20 -20 -20

GFSWCAN_prec_radar_075.txt.gz
Reflectivity
-7 8 14 15 13 6 12 4 12 14 21 11 17 17 10 18 16 22 9 24 29 26 5 -9 -15 -20 -20 -20 -20 -11 15 -13 -20 -20 -14 -15 -20 -20 -20 -20 -20 -20 -12 -20 4 2 15 -10 -18 -14 -20 12 23 2
-15 8 22 23 5 4 -1 -12 -6 10 8 15 19 12 28 -0 16 23 12 11 14 29 27 -10 -20 -20 -20 -20 -17 10 0 -10 -20 -20 -20 -20 -20 -20 -20 -20 -20 -20 -20 -20 -20 6 7 14 -20 -9 3 34 -1 -19
9 15 5 10 2 -18 -9 2 8 16 23 14 19 19 29 11 19 25 21 10 18 18 -14 21 -10 -20 -20 -20 -16 0 -20 -20 -20 -20 -20 -20 -20 -20 -20 -20 -20 -20 -20 -20 -12 -17 -20 7 -20 -20 -20 -20 26 -17
8 -7 1 12 17 11 -10 3 -14 6 26 19 27 19 27 17 20 32 30 4 3 -12 -7 13 -10 -20 -20 -20 -20 -17 -20 4 -20 -20 -20 -20 -20 -20 -20 -20 -20 -20 -20 -20 -19 12 -2 -20 -20 -20 -20 -20 -13 6
9 -4 9 10 10 -7 3 17 10 14 18 18 19 33 16 13 26 35 18 -15 -20 -20 -1 5 -7 3 24 16 -19 -20 -15 -20 14 -20 -20 -20 -20 1 -20 -20 -20 -20 -20 -20 -20 -20 -20 -20 -20 -20 -20 -20 -20 -20
16 9 -2 10 10 -15 1 -9 6 20 28 17 28 13 16 28 36 17 32 21 -20 -20 14 5 29 14 20 24 24 22 -16 5 -20 -20 -20 -20 -20 -20 -20 -20 -20 -2 -20 -20 -20 -20 -20 -20 -20 -20 -20 -20 -20 -20
-6 -2 -9 17 -14 -5 5 12 2 19 24 19 13 17 23 21 -6 -3 -3 -20 -15 19 36 31 15 22 17 13 18 14 18 -6 12 11 -20 -20 -20 -11 -20 -20 -20 -18 1 13 -20 -20 -20 -20 -20 -20 -13 -11 -20 -8
20 2 20 22 23 8 14 12 19 4 12 15 25 31 13 -11 -8 -2 -15 4 9 36 42 13 31 23 -17 -20 -20 -20 -17 -19 1 6 -19 -20 12 -20 0 -11 -20 -19 -16 11 -20 -20 -20 -18 -20 -20 -20 -20 0 -1
8 13 13 27 14 17 -1 7 11 11 7 18 28 25 34 26 42 17 20 31 37 22 9 -20 -16 -2 -20 -20 -20 -20 -20 -20 -20 -4 12 13 1 -20 -2 -18 1 -20 -1 -9 -20 -20 -20 23 21 18 23 -11 -20 -20
8 -8 1 14 -20 20 33 -13 11 17 5 35 35 36 37 16 22 38 34 14 9 9 -20 -20 -20 -11 -20 -20 -20 -20 -20 -20 -20 -20 -20 -20 -20 -17 -20 -4 -3 -7 -10 -3 -20 -20 -20 -20 -12 -20 -19 -20 -20 -0
14 -16 -11 -12 -15 -4 29 26 1 8 1 8 35 38 38 29 20 14 4 9 -4 -5 -20 -20 -20 -20 -20 -20 -20 -20 -20 -20 -20 -20 -20 -13 -17 -3 -20 -17 -20 -5 13 34 22 -6 -12 -20 0 -9 -13 -20 -20 -20
12 8 2 -20 -20 -20 -20 -14 19 4 -13 7 14 18 13 -11 -16 -20 -20 -20 -20 -20 -20 -20 -20 -20 -20 -20 -20 -20 -20 -20 -20 -17 -11 -20 -1 -7 -16 -20 -16 -7 10 21 24 -12 -20 -17 -17 -18 -20 -20 -20 -20
-18 -20 -20 -14 -20 -20 -20 -20 -8 3 -20 -20 -20 -20 -20 -20 -20 -20 -20 -20 -20 -20 -20 -20 -20 -20 -20 -20 -16 1 -5 16 27 5 -4 1 -20 -18 -7 -9 -5 -19 -11 1 15 16 11 3 -20 -7 -20 -19 -20 -20
-20 -20 -20 -20 -20 -20 -20 -20 -20 -20 -20 -20 -20 -20 -20 -20 -20 -18 -18 -18 -18 -20 -20 -20 -20 -20 -11 -20 -1 -20 1 -9 18 4 7 10 10 -20 -19 -5 -11 -18 -15 -20 -14 1 8 -16 -11 -10 -11 -5 1 11
-20 -20 -20 -20 -16 -17 -20 -20 -20 -20 -20 -20 -20 -20 -20 -17 -18 -17 -19 -19 -5 1 -16 -20 -19 -20 -20 -20 -20 -20 -20 -20 -20 -13 18 13 -10 -15 -13 -18 -20 -20 -20 -20 -17 -16 -16 -12 -12 5 10 13 8 10
-20 -20 -20 -20 -20 -20 -20 -20 -20 -20 -20 -20 -20 -20 -20 -20 -19 -20 -17 -19 -17 2 -20 -20 -18 -20 -20 -20 -20 -20 -20 -20 -20 -20 -0 2 -3 -1 -15 -12 -18 -16 -7 4 9 6 2 1 -3 8 13 14 16 13
-20 -20 -20 -20 -20 -20 -20 -20 -20 -20 -20 -20 -20 -20 -20 -20 -19 -19 -20 -20 -20 -20 -20 -20 -20 -8 -9 -20 -12 -8 -20 -20 -20 -18 -6 -10 -4 -0 5 7 13 15 13 14 15 13 9 6 6 7 8 14 10 12
-20 -20 -20 -20 -20 -20 -20 -20 -20 -20 -20 -20 -20 -18 -20 -20 -20 -20 -20 -20 -20 -20 -20 -20 -20 -20 -20 -20 -20 -19 -20 -20 -20 -20 -20 -20 -16 6 8 6 4 4 13 14 11 8 9 11 8 13 15 16 14 14
-20 -20 -20 -20 -20 -20 -20 -20 -20 -20 -11 -9 -20 -20 -20 -19 -20 -20 -20 -20 -20 -20 -20 -20 -20 -20 -20 -20 -20 -20 -20 -20 -20 -20 -20 -20 -20 -20 -19 -2 6 10 12 12 12 14 15 15 12 12 8 4 5 5
8 -15 -20 -20 -20 -20 -20 -20 -20 -20 -20 -20 -20 -20 -20 -20 -20 -20 -20 -20 -20 -20 -20 -20 -20 -20 -20 -20 -20 -20 -20 -20 -20 -20 -20 -20 -20 -20 -9 2 6 8 9 11 10 11 11 7 4 1 -1 1 -3 -16
-20 -20 -20 -20 -20 -20 -20 -20 -20 -20 -20 -2 -20 -20 -20 -20 -20 -20 -20 -20 -20 -7 -20 -20 -20 -20 -20 -20 -20 -20 -20 -20 -20 -20 -20 -20 -19 -20 -20 -18 -16 -8 -0 2 2 0 1 -4 -18 -20 -20 -14 -20 -20
-20 -20 -20 -20 -20 -20 -20 -20 -20 -20 -20 -20 -20 -20 -20 -20 -20 -20 -20 -20 -17 -20 -20 -20 -20 -20 -20 -20 -20 -20 -20 -20 -20 -20 -20 -20 -20 -20 -18 -16 -19 -19 -19 -18 -20 -20 -20 -20 -20 -20 -20 -20 -20 -20
-20 -20 -20 -20 -20 -20 -20 -20 -20 -20 -20 -20 -20 -20 -20 -20 -20 -20 -20 -2 -3 -13 -20 -20 -20 -20 -20 -20 -20 -20 -20 -20 -19 -18 -18 -18 -19 -19 -20 -19 -20 -20 -20 -20 -20 -20 -20 -20 -20 -20 -20 -20 -20 -20
-20 -20 -20 -20 -20 -20 -20 -20 -20 -20 -20 -20 -20 -20 -3 -20 -20 -20 -20 -18 6 -18 -20 -20 -20 -20 -20 -20 -20 -20 -19 -20 -20 -20 -19 -20 -19 -18 -20 -20 -20 -20 -20 -20 -20 -20 -20 -20 -20 -20 -20 -20 -20 -20
-20 -20 -20 -20 -20 -20 -20 -20 -20 -20 -20 -20 -20 -20 -20 -20 -20 -20 -20 -20 -20 -20 -20 -20 -20 -20 -20 -20 -20 -20 -20 -20 -20 -20 -20 -20 -20 -20 -20 -20 -20 -20 -20 -20 -20 -20 -20 -20 -20 -20 -20 -20 -20 -20
-20 -20 -20 -20 -20 -20 -20 -20 -20 -20 -20 -20 -20 -20 -20 -20 -20 -15 -20 -20 -20 -20 -20 -20 -20 -20 -20 -20 -20 -20 -20 -20 -20 -20 -20 -20 -20 -20 -20 -20 -20 -20 -20 -20 -20 -20 -20 -20 -20 -20 -20 -20 -20 -20
-20 -20 -20 -20 -20 -20 -20 -20 -20 -20 -20 -20 -20 -20 -20 -20 -20 -19 -20 -20 -20 -20 -20 -20 -20 -20 -20 -20 -20 -20 -20 -20 -20 -20 -20 -20 -20 -20 -20 -20 -20 -20 -20 -20 -20 -20 -20 -20 -20 -20 -20 -20 -20 -20
-20 -20 -20 -20 -20 -20 -20 -20 -20 -20 -20 -20 -20 -20 -20 -20 -18 -20 -20 -20 -20 -20 -20 -20 -20 -20 -20 -20 -20 -20 -20 -20 -20 -20 -20 -20 -20 -20 -20 -20 -20 -20 -20 -20 -20 -20 -20 -20 -20 -20 -20 -20 -20 -20
-20 -20 -20 -20 -20 -20 -20 -20 -20 -20 -20 -20 -20 -20 -20 -20 -20 -20 -20 -20 -20 -20 -20 -20 -20 -20 -20 -20 -20 -20 -20 -20 -20 -20 -20 -20 -20 -20 -20 -20 -20 -20 -20 -20 -20 -20 -20 -20 -20 -20 -20 -20 -20 -20
-20 -20 -20 -20 -20 -20 -20 -20 -20 -20 -20 -20 -15 -17 -20 -20 -20 -20 -20 -20 -20 -20 -20 -20 -20 -20 -20 -20 -20 -20 -20 -20 -20 -20 -20 -20 -20 -20 -20 -20 -20 -20 -20 -20 -20 -20 -20 -20 -20 -20 -20 -20 -20 -20
-20 -20 -20 -20 -20 -20 -20 -20 -20 -20 -20 -20 -20 -20 -20 -20 -20 -20 -20 -20 -20 -20 -20 -20 -20 -20 -20 -20 -20 -20 -20 -20 -20 -20 -20 -20 -20 -20 -20 -20 -20 -20 -20 -20 -20 -20 -20 -20 -20 -20 -20 -20 -20 -20
-20 -20 -20 -20 -20 -20 -20 -20 -20 -20 -20 -20 -20 -20 -20 -20 -20 -20 -20 -20 -20 -20 -20 -20 -20 -20 -20 -20 -20 -20 -20 -20 -20 -20 -20 -20 -20 -20 -20 -20 -20 -20 -20 -20 -20 -20 -20 -20 -20 -20 -20 -20 -20 -20
-20 -20 -20 -20 -20 -20 -20 -20 -20 -20 -20 -20 -20 -20 -20 -20 -20 -20 -20 -20 -20 -20 -20 -20 -20 -20 -20 -20 -20 -20 -20 -20 -20 -20 -20 -20 -20 -20 -20 -20 -20 -20 -20 -20 -20 -20 -20 -20 -20 -20 -20 -20 -20 -20

GFSWCAN_prec_radar_078.txt.gz
Reflectivity
-7 -7 -2 12 13 22 25 20 13 8 -16 17 18 7 17 18 -20 22 9 15 33 34 25 -15 -20 -20 -20 -20 -18 11 18 -2 4 -3 7 2 -20 -13 -20 -20 12 -0 -3 9 21 0 -13 3 -8 9 -8 -20 -20 -20
-17 2 -0 10 5 2 -4 11 2 7 7 5 -1 21 -7 17 14 17 23 11 27 25 24 26 16 -19 -20 -20 17 21 8 -9 -20 -20 -20 -20 -20 -20 -20 -20 -20 -20 3 -16 -20 -17 -20 -11 -8 9 -20 13 -20 -20
4 7 19 15 -10 -6 4 19 14 -10 -5 -13 -7 10 23 28 18 22 24 12 23 31 11 7 7 -20 -20 -19 11 -6 -20 -20 -20 -20 -20 -20 -20 -20 -20 -20 -20 -20 -20 -20 -20 -20 -20 -20 -20 -20 -0 -11 -15 -5
19 20 -5 -13 -7 17 1 7 14 11 14 16 18 14 29 25 35 24 30 3 11 15 6 -20 8 16 -20 -19 -11 -20 -15 -20 -20 -20 -20 -20 -20 -20 -20 -20 -20 -20 -20 -20 -20 -20 -20 -20 -20 -20 0 -6 -20 -18
13 8 -0 -19 10 -16 18 7 17 19 11 10 31 15 5 26 32 27 30 2 -20 -11 -20 -20 -5 -20 -20 -20 -20 -19 -20 -20 -20 4 -20 -20 -20 -1 -20 -20 -20 -20 -20 -20 -20 -20 -20 -20 -16 -20 -20 -20 -20 -20
9 -13 14 1 -17 12 6 13 12 9 20 31 30 15 9 26 40 32 37 10 10 -6 18 -4 -20 -20 -20 -5 -20 -20 -20 -20 -20 -20 -20 -20 -20 -20 -20 -20 -20 -20 -20 -20 -20 -20 -20 -20 -20 -20 -20 -20 -20 -20
-5 23 -17 -19 -20 -9 5 20 -7 6 23 26 25 22 34 36 21 -2 16 4 5 -19 5 21 5 8 -11 25 -8 -16 -9 -4 14 15 -20 -20 16 7 -20 -20 -20 -20 -20 -20 -20 -20 -20 -20 -20 -20 -20 24 -20 -20
-4 23 13 -6 10 7 -1 12 16 16 21 28 27 24 28 25 18 18 -20 -20 -20 -20 16 27 21 30 21 48 44 39 32 30 27 -19 10 18 -0 -3 -6 -13 -20 -20 -20 -20 -20 -20 -20 -20 -20 -20 -20 -14 -20 -20
11 -4 21 -1 3 24 18 15 16 21 12 17 20 28 29 34 22 9 14 0 -1 13 18 18 15 26 14 23 12 18 3 -16 -20 -20 -20 16 10 12 -2 -17 -20 -20 -6 -17 -20 -20 -20 -20 -20 -18 12 -2 9 -4
1 12 3 33 -8 -13 14 18 22 31 32 23 19 20 -2 -17 -9 2 7 16 22 34 29 33 -2 -2 -16 -20 -20 -20 -20 -20 -20 -20 -19 -20 -4 2 -20 -4 -20 -20 -20 -6 -20 -20 -20 -20 -15 1 -20 -19 -11 -11
8 14 17 28 27 -4 -1 6 6 5 -12 10 20 37 35 25 33 31 24 28 25 23 27 -7 -20 11 -17 -19 -20 -20 -20 -20 -20 -20 -20 -20 -13 -15 -20 -20 -20 -20 -20 -20 -8 -12 -9 -15 -20 -12 -20 -20 -20 -20
-20 4 0 5 16 7 7 27 30 34 32 14 6 13 30 3 -17 -20 -20 -20 -20 -2 19 -6 -20 -15 -20 -20 -20 -20 -20 -20 -20 19 -7 -20 2 -16 -20 -20 -20 -20 -20 -20 -20 -17 10 21 4 -7 -20 -20 -20 -20
-20 -20 -19 -18 -8 -0 -4 -19 19 27 19 -11 -12 -17 10 -18 -20 -20 -20 -20 -20 -20 -20 -20 -20 -20 -20 -20 -20 -20 -20 -17 -20 3 -1 -4 -3 -20 -20 -20 -20 -19 -20 -16 -14 -13 4 27 24 15 -18 -17 -20 -20
-20 -20 -20 -20 -20 -20 -20 -20 -20 -7 7 8 -20 -20 -20 -20 -20 -17 -16 -16 -16 -20 -20 -20 -20 -20 -20 -20 -20 -20 -14 6 -14 -20 -19 -8 0 -6 -8 -20 -20 -16 -5 -18 -20 1 -7 7 20 18 18 -4 -15 -16
-20 -20 -20 -20 -20 -20 -20 -20 -20 -20 -20 -20 -20 -20 -20 -14 -19 -12 -13 -19 -16 -15 -20 -20 -20 -20 -20 -20 -20 -20 -20 -20 -20 -20 -20 -2 6 6 7 -13 -20 1 13 4 -4 4 3 -7 -10 1 11 8 -5 -4
-20 -20 -20 -20 -20 -20 -20 -20 -20 -20 -20 -20 -20 -20 -20 -18 -7 -12 0 -1 -12 -19 -20 -20 -20 -20 -20 -20 -20 -20 -20 -20 -20 -20 -20 -12 -20 -18 -20 -7 -13 -7 -19 -7 1 -2 -15 -14 -8 7 11 7 8 5
-20 -20 -20 -20 -20 -20 -20 -20 -20 -20 -20 -20 -20 -20 -20 -20 -19 -20 -20 -20 -20 -20 -20 -20 -20 -20 -19 -20 -20 -20 -20 -20 -20 -20 -20 -20 -14 -20 -18 -11 -19 -10 -1 5 5 1 -3 6 10 11 9 14 10 10
-20 -20 -20 -20 -20 -20 -20 -20 -20 -20 -20 -20 -20 -20 -20 -20 -20 -20 -20 -20 -20 -20 -20 -20 -20 -20 0 -16 -20 -18 -20 -20 -20 -20 -20 -20 -20 -20 -18 -3 4 11 13 10 6 11 8 8 11 12 10 12 6 7
-20 -20 -20 -20 -20 -20 -20 -20 -20 -20 -20 -20 -20 -20 -20 -20 -20 -20 -20 -20 -20 -20 -20 -20 -20 -20 -20 -20 -20 -20 -20 -20 -20 -20 -18 -11 -20 -20 -20 -20 -18 -7 2 7 8 6 3 5 7 8 7 6 6 6
-20 -20 -20 -20 -20 -20 -20 -20 -20 -20 -20 -20 -20 -20 -20 -20 -20 -20 -20 -20 -20 -20 -20 -20 -20 -20 -20 -20 -20 -20 -20 -20 -20 -20 -20 -20 -20 -10 2 7 10 11 5 4 6 7 6 6 7 5 2 -9 -18 -20
-20 -20 -20 -20 -20 -20 -20 -20 -20 -20 -20 -20 -20 -20 -20 -20 -20 -20 -20 -20 -20 -5 -20 -20 -20 -20 -20 -20 -20 -20 -20 -20 -20 -20 -20 -20 -18 -18 -14 -6 -3 -9 -8 -0 1 -1 -4 -14 -20 -14 -15 -20 -20 -20
-20 -20 -20 -20 -20 -20 -20 -20 -20 -20 -20 -20 -20 -20 -20 -20 -20 -20 -20 -20 -20 -20 -20 -20 -20 -20 -20 -20 -20 -20 -20 -20 -20 -20 -20 -20 -20 -20 -18 -6 -3 -4 -6 -10 -19 -20 -20 -20 -20 -20 -20 -20 -20 -20
-20 -20 -20 -20 -20 -20 -19 -20 -20 -20 -20 -20 -20 -20 -20 -20 -20 -20 -20 -6 -12 -9 -20 -20 -20 -20 -20 -20 -20 -20 -20 -20 -20 -20 -20 -20 -20 -19 -18 -18 -19 -20 -20 -20 -20 -20 -20 -20 -20 -20 -20 -20 -20 -20
-20 -20 -20 -20 -20 -20 -20 -20 -20 -20 -20 -20 -20 -20 -20 -20 -20 -20 -20 -20 -20 -5 -20 -20 -20 -20 -20 -20 -20 -20 -20 -20 -20 -20 -20 -20 -20 -20 -20 -20 -20 -20 -20 -20 -20 -20 -20 -20 -20 -20 -20 -20 -20 -20
-20 -20 -20 -20 -20 -20 -20 -20 -20 -20 -20 -20 -20 -20 -20 -20 -20 -20 -20 -20 -20 -20 -20 -20 -20 -20 -20 -20 -20 -20 -20 -20 -20 -20 -20 -20 -20 -20 -20 -20 -20 -20 -20 -20 -20 -20 -20 -20 -20 -20 -20 -20 -20 -20
-20 -20 -20 -20 -20 -20 -20 -20 -20 -20 -20 -20 -20 -20 -20 -20 -20 -15 -20 -20 -20 -20 -20 -20 -20 -20 -20 -20 -20 -20 -20 -20 -20 -20 -20 -20 -20 -20 -20 -20 -20 -20 -20 -20 -20 -20 -20 -20 -20 -20 -20 -20 -20 -20
-20 -20 -20 -20 -20 -20 -20 -20 -20 -20 -20 -20 -20 -20 -20 -20 -20 -20 -20 -20 -20 -20 -20 -20 -20 -20 -20 -20 -20 -20 -20 -20 -20 -20 -20 -20 -20 -20 -20 -20 -20 -20 -20 -20 -20 -20 -20 -20 -20 -20 -20 -20 -20 -20
-20 -20 -20 -20 -20 -20 -20 -20 -20 -20 -20 -20 -20 -20 -20 -20 -20 -20 -20 -20 -20 -20 -20 -20 -20 -20 -20 -20 -20 -20 -20 -20 -20 -20 -20 -20 -20 -20 -20 -20 -20 -20 -20 -20 -20 -20 -20 -20 -20 -20 -20 -20 -20 -20
-20 -20 -20 -20 -20 -20 -20 -20 -20 -20 -20 -20 -20 -20 -20 -20 -20 -20 -20 -20 -20 -20 -20 -20 -20 -20 -20 -20 -20 -20 -20 -20 -20 -20 -20 -20 -20 -20 -20 -20 -20 -20 -20 -20 -20 -20 -20 -20 -20 -20 -20 -20 -20 -20
-20 -20 -20 -20 -20 -20 -20 -20 -20 -20 -20 -20 -15 -17 -20 -20 -20 -20 -20 -20 -20 -20 -20 -20 -20 -20 -20 -20 -20 -20 -20 -20 -20 -20 -20 -20 -20 -20 -20 -20 -20 -20 -20 -20 -20 -20 -20 -20 -20 -20 -20 -20 -20 -20
-20 -20 -20 -20 -20 -20 -20 -20 -20 -20 -20 -20 -20 -20 -20 -20 -20 -20 -20 -20 -20 -20 -20 -20 -20 -20 -20 -20 -20 -20 -20 -20 -20 -20 -20 -20 -20 -20 -20 -20 -20 -20 -20 -20 -20 -20 -20 -20 -20 -20 -20 -20 -20 -20
-20 -20 -20 -20 -20 -20 -20 -20 -20 -20 -20 -20 -20 -20 -20 -20 -20 -20 -20 -20 -20 -20 -20 -20 -20 -20 -20 -20 -20 -20 -20 -20 -20 -20 -20 -20 -20 -20 -20 -20 -20 -20 -20 -20 -20 -20 -20 -20 -20 -20 -20 -20 -20 -20
-20 -20 -20 -20 -20 -20 -20 -20 -20 -20 -20 -20 -20 -20 -20 -20 -20 -20 -20 -20 -20 -20 -20 -20 -20 -20 -20 -20 -20 -20 -20 -20 -20 -20 -20 -20 -20 -20 -20 -20 -20 -20 -20 -20 -20 -20 -20 -20 -20 -20 -20 -20 -20 -20

GFSWCAN_prec_radar_084.txt.gz
Reflectivity
-20 -20 -16 -19 -20 -20 -13 -1 4 6 5 15 23 17 -20 14 17 18 5 29 24 9 -2 -9 -20 -20 13 20 14 12 29 32 34 22 19 13 -15 -20 -20 -20 16 25 5 3 3 22 6 -20 -15 15 32 25 3 33
7 15 16 -19 -13 -1 -7 6 9 13 12 -20 14 11 24 11 17 17 14 17 26 20 19 -20 -19 -20 -20 -15 19 27 4 -6 8 15 16 18 17 14 -20 -20 -20 -14 21 28 25 8 -20 -8 9 -10 7 -18 -20 -19
6 19 -9 0 -11 4 10 11 11 8 -5 -12 -10 -6 14 4 17 15 18 6 32 36 -2 16 5 -20 -20 10 -5 13 15 18 -7 15 18 19 -18 -20 0 -20 -20 -20 -20 2 0 12 11 24 -12 -20 -20 -20 -20 -20
15 1 -3 17 -14 -4 -7 -20 -17 6 3 14 18 6 9 25 15 23 14 9 14 17 8 -15 -20 -20 -20 -20 1 -17 8 18 20 13 17 19 -10 -20 8 -20 -20 -20 -20 -20 -20 -20 -20 -10 -20 -20 -20 -20 -20 -20
10 10 -2 -6 5 -18 -20 -11 -11 -20 -20 16 11 16 18 34 21 26 20 3 12 7 3 -18 -1 -20 -20 -16 8 -9 20 18 19 17 13 8 -11 2 -20 -9 -20 -20 -20 -15 3 -20 -20 -20 -20 -20 -20 -20 -20 -20
19 -3 21 11 -20 -19 -20 -2 -8 7 -11 12 15 11 27 15 24 37 38 17 6 -0 16 10 -9 1 -7 -20 11 2 6 11 26 24 17 20 -19 15 18 13 -19 -20 -20 -20 -20 -20 -20 -20 -20 -20 -20 -20 -20 -20
15 10 15 11 -7 -20 -8 5 -7 19 5 -15 14 29 18 24 34 28 18 6 -14 20 22 9 13 -20 -13 -20 2 22 12 23 24 24 19 18 19 14 -10 17 -18 -20 -20 -20 -20 -20 -20 -20 -15 -20 -20 -20 -20 -20
24 24 14 -7 8 7 -8 16 30 23 21 20 24 21 25 33 23 19 -12 8 7 -3 -7 -16 7 19 25 13 16 18 19 20 28 21 19 15 21 0 6 -20 -20 -20 -20 -20 -20 -20 -4 -19 -20 -20 -20 -20 -20 -20
8 20 18 29 21 22 16 16 23 20 22 29 35 29 36 38 38 21 7 4 -4 16 16 -10 15 10 10 29 -4 6 -10 27 5 17 15 4 9 -0 -4 -8 -20 -20 -6 -20 -20 -20 -20 -20 -20 -20 -8 -20 -20 -20
17 16 22 24 4 19 31 24 28 25 20 18 29 24 42 24 -5 21 28 25 25 -7 -20 18 11 22 17 3 14 -18 23 20 12 11 -19 4 19 -0 1 -2 -4 -11 -20 -20 -20 -20 -20 -20 -20 -20 -3 -20 -20 -20
15 -14 -5 -4 -20 -20 9 21 19 23 1 -4 6 30 34 25 5 4 23 10 1 -10 -16 -1 1 9 30 5 0 33 30 24 6 16 29 9 -11 -4 -16 -20 -20 -6 -11 -5 -5 -3 -20 -5 -20 -20 -20 -20 -20 -20
-16 7 7 23 18 -3 3 -16 -20 -20 -10 -11 13 12 18 1 -18 -11 7 24 13 16 14 3 4 19 30 34 14 14 26 6 10 5 -18 -20 1 -5 -20 -7 -20 -16 -5 -18 -13 -8 -3 -17 -12 -20 -20 -16 -19 -14
-20 -0 2 15 -17 -20 -20 -9 -18 -20 -20 -20 -20 -20 6 6 -19 -20 -19 -19 1 -15 -2 23 33 35 15 27 33 22 13 2 -18 -19 -20 0 -2 -3 -2 -3 -6 -20 -13 -5 -3 -17 -19 -17 -15 -16 -17 -3 -19 -14
-20 -20 -20 -15 -20 -20 -20 -14 1 -17 -15 -10 -20 -20 -20 -20 -3 -2 -4 -5 -3 11 12 12 3 5 14 10 -5 -20 -4 -20 -20 -20 -3 0 -3 -3 -4 -4 -5 -2 -2 -2 -2 -4 -5 -17 -17 -18 -17 -17 -18 5
-20 -20 -20 -20 -20 -20 -20 -20 -20 -20 -20 -20 -20 -14 -20 -3 -9 -4 -9 -3 -12 -15 -1 9 -15 -20 -20 -20 -20 -20 -20 -20 -20 -1 4 3 1 2 0 0 0 -1 -1 -1 -0 -13 -13 -10 -9 -3 -5 1 7 16
-20 -20 -20 -20 -20 -20 -20 -20 -20 -20 -20 -20 -20 -14 -20 -16 -18 -18 -17 -19 -20 -20 -20 -20 -20 -20 -20 -20 -20 -11 -20 -14 1 3 5 3 2 2 3 1 1 3 2 1 1 1 1 -1 4 6 9 9 13 14
-20 -20 -20 -20 -20 -20 -20 -20 -20 -20 -20 -20 -20 -3 -3 -16 -4 -2 -1 -20 -20 -20 -20 -20 -20 -7 -20 -20 -20 -2 -0 3 4 4 3 1 3 1 -1 -2 2 1 -1 -0 -1 -1 5 10 9 8 4 13 13 12
-20 -20 -20 -20 -20 -20 -20 -20 -20 -20 -20 -17 -20 -0 -2 -4 -5 -20 -20 -20 -20 -20 -20 -20 -20 -20 -17 -18 -2 1 1 2 2 1 -0 2 -1 -2 -1 -2 -20 -17 -20 -5 -8 -6 -1 5 8 9 9 10 5 -2
-20 -20 -20 -20 -20 -20 -20 -20 -20 -20 -10 -3 -1 -8 -12 -20 -20 -20 -20 -20 -20 -20 -20 -20 -20 -20 0 2 3 3 3 1 -1 0 -2 -14 -10 -20 -20 -20 -20 -20 -20 -11 -0 -2 1 5 5 5 5 6 2 -2
-20 -20 -20 -20 -20 -20 -20 -20 -20 -20 -20 -20 -20 -20 -20 -20 -20 -20 -20 -20 -20 -20 -20 -20 -0 2 2 2 3 3 2 1 -1 -3 -2 -0 -1 -20 -2 -1 -3 -2 -20 -20 -20 -9 -17 -17 -18 -10 -11 -17 -20 -20
-20 -20 -20 -20 -20 -20 -20 -20 -20 -20 -20 -20 -20 -20 -20 -20 -20 -20 -20 -20 -20 -5 -1 2 2 -1 -1 1 2 2 -1 0 1 -1 -2 -1 -1 -2 -3 -1 -2 -2 -17 -13 -17 -16 -17 -19 -20 -20 -3 -2 -2 -11
-20 -20 -20 -20 -20 -20 -15 -20 -20 -16 -20 -19 -20 -20 -20 -20 -20 -20 -20 -20 -2 3 1 2 0 0 -20 -16 -2 -1 -2 -1 -4 -20 -20 -15 -2 -8 -4 -1 -18 -14 -17 -7 -18 -20 -20 -20 -20 -11 -2 -2 -16 -20
-20 -20 -20 -20 -20 -20 -9 -18 -11 -17 -20 -20 -20 -20 -20 -20 -20 -20 -20 -9 2 6 1 -0 0 -0 -1 0 -4 -2 -6 -20 -13 -2 -8 -4 -4 -3 -3 -10 -2 -12 -19 -20 -20 -20 -20 -20 -20 -8 -11 -2 -20 -20
-20 -20 -20 -20 -20 -20 -20 -20 -20 -20 -20 -20 -20 -20 -20 -20 -20 -20 -17 2 6 3 1 1 -0 -2 -16 -20 -9 -0 -1 -20 -20 -15 -7 -20 -20 -20 -20 -20 -20 -20 -20 -20 -20 -20 -20 -20 -20 -20 -20 -20 -20 -20
-20 -20 -20 -20 -20 -20 -20 -20 -20 -20 -20 -20 -20 -20 -20 -20 -20 -20 -18 -1 2 0 -0 1 -19 -20 -20 -2 -2 -3 -20 -20 -20 -20 -20 -20 -20 -20 -20 -20 -20 -20 -20 -20 -20 -20 -20 -20 -20 -20 -20 -20 -20 -20
-20 -20 -20 -20 -20 -20 -20 -20 -20 -20 -20 -20 -20 -20 -20 -20 -20 -16 -13 1 1 -1 -0 2 1 -3 -20 -20 -20 -20 -20 -20 -20 -20 -20 -20 -20 -20 -20 -20 -20 -20 -20 -20 -20 -20 -20 -20 -20 -20 -20 -20 -20 -20
-20 -20 -20 -20 -20 -20 -20 -20 -20 -20 -20 -20 -20 -20 -20 -20 -20 -5 1 -1 0 0 -1 0 -9 -20 -20 -20 -20 -20 -20 -20 -20 -20 -20 -20 -20 -20 -20 -20 -20 -20 -20 -20 -20 -10 -20 -20 -20 -20 -20 -20 -20 -20
-20 -20 -20 -20 -20 -20 -20 -20 -20 -20 -20 -20 -20 -20 -20 -20 -20 0 -0 1 0 -20 -20 -20 -20 -20 -20 -20 -20 -20 -20 -20 -20 -20 -20 -20 -20 -20 -20 -20 -20 -20 -20 -20 -20 -20 -20 -20 -20 -20 -20 -7 -20 -20
-20 -20 -20 -20 -20 -20 -18 -20 -20 -20 -20 -20 -20 -20 -20 -4 -0 1 1 1 -19 -20 -20 -20 -20 -20 -20 -20 -20 -20 -20 -20 -20 -20 -20 -20 -20 -20 -20 -20 -20 -20 -12 -18 -20 -20 -20 -20 -20 -20 -20 -6 -9 -20
-20 -20 -20 -20 -20 -20 -3 -2 -5 -20 -20 -20 -20 -18 -13 -13 -16 -3 1 1 0 -0 -20 -20 -20 -20 -20 -20 -20 -20 -20 -20 -20 -20 -20 -20 -20 -20 -20 -13 -13 -20 -14 -0 -1 -1 -9 -12 -20 -20 -20 -13 -13 -2
-20 -20 -20 -20 -20 -18 -15 -20 -20 -20 -20 -20 -20 -20 -19 -14 -6 -20 -20 -20 -20 -20 -20 -20 -20 -20 -20 -20 -20 -20 -20 -20 -20 -20 -20 -20 -20 -9 -20 -20 -20 -20 -20 -20 -20 -18 -20 -20 -15 -20 -20 -20 -16 -20
-20 -20 -20 -20 -20 -20 -20 -20 -20 -20 -20 -20 -20 -20 -20 -20 -19 -18 -20 -20 -20 -3 -20 -20 -20 -20 -20 -20 -20 -20 -20 -20 -20 -20 -20 -20 -20 -20 -20 -20 -20 -20 -20 -20 -20 -20 -20 -20 -20 -20 -20 -20 -20 -20
-20 -20 -20 -20 -20 -20 -20 -20 -20 -20 -20 -20 -20 -20 -20 -20 -20 -20 -20 -20 -20 -19 -20 -20 -20 -20 -20 -20 -20 -20 -20 -20 -20 -20 -20 -20 -20 -20 -20 -20 -20 -20 -20 -20 -20 -20 -20 -20 -20 -20 -20 -20 -20 -20

GFSWCAN_prec_radar_087.txt.gz
Reflectivity
5 11 10 11 13 10 -4 4 3 3 -7 -20 12 12 -0 14 15 21 0 1 26 33 -13 -20 -18 -9 19 22 26 23 14 27 23 21 17 15 13 -10 -20 -13 23 1 10 15 12 9 9 -12 -20 18 12 27 36 40
11 -3 -20 3 -1 -16 11 -15 -15 -17 -7 -13 -8 -16 8 10 12 17 17 11 22 31 1 -19 -19 4 -4 19 24 31 -3 -14 -17 16 13 20 15 11 -9 6 -8 1 1 15 -16 -4 31 -17 -4 -20 4 13 12 33
9 -15 7 -14 -11 -20 4 -20 -4 9 13 0 -1 11 11 19 20 16 15 20 21 30 9 -7 -20 -20 -20 -20 -19 9 -17 22 7 -15 18 18 18 -13 19 -14 24 -18 -20 30 27 0 1 -14 15 -18 -13 -1 2 1
3 -6 -19 -19 8 10 -1 -15 -19 -15 6 8 3 2 12 19 32 18 6 16 -6 8 16 18 -20 -20 -13 -19 -20 -18 12 16 20 20 23 22 16 -20 -4 4 -2 -11 15 -17 -19 9 25 22 11 10 -18 -17 3 -13
-1 11 -0 10 16 4 1 -11 -20 -20 -20 -5 -4 -2 -19 3 28 21 12 -5 -20 12 21 -2 -18 -20 -20 -20 12 17 16 17 25 21 17 3 15 9 -18 0 5 -2 7 7 22 -20 -20 -11 -10 -18 -20 -20 -20 -20
-20 19 19 0 -20 -19 -20 -20 -20 5 -1 -19 -17 -20 16 15 21 35 39 26 14 18 23 15 -20 -20 -20 -3 13 22 1 24 27 24 14 7 -20 21 20 18 11 -20 -20 -20 -19 -20 -20 -19 -20 -20 -20 -20 -20 -20
16 22 2 -5 7 -15 3 -18 5 6 10 -20 -4 13 30 26 34 34 22 -3 -20 21 -1 7 4 10 -20 -6 20 23 22 14 23 29 19 19 22 21 22 22 -13 -20 -20 -20 -20 -20 -20 -20 -8 -20 -20 -20 -20 -20
22 12 18 14 15 13 5 12 15 3 12 -4 13 20 31 36 33 11 -5 3 -20 14 19 18 21 21 14 10 15 18 18 16 14 20 20 20 21 28 18 -19 -20 -20 -20 -20 -20 -20 -12 -20 -20 -20 -20 -20 -20 -20
14 17 25 20 27 32 14 7 -2 16 16 17 31 38 37 30 32 30 13 9 11 17 19 2 16 16 17 21 14 20 30 22 25 20 17 18 22 10 0 -2 -11 -20 -20 -20 -20 -20 -20 -20 -20 -20 -20 -20 -20 -20
-2 14 16 22 24 31 36 31 35 37 35 29 30 32 37 29 5 15 23 33 27 21 21 7 13 23 -9 18 24 -20 19 16 27 12 2 17 -5 0 -20 -20 -20 -10 -20 -20 -20 -20 -20 -20 -20 -20 -20 -20 -20 -20
-0 -4 -8 -10 29 20 19 26 16 21 21 6 13 27 31 28 26 27 26 17 18 16 8 9 21 22 7 13 15 2 16 11 14 6 20 -4 -3 -7 -20 -20 -20 -19 -4 -12 -20 -10 -17 -20 -20 -20 -20 -20 -20 -20
-12 14 16 -17 -17 -19 -20 -20 -20 -20 -20 -10 9 27 23 16 13 13 15 4 3 20 -3 12 6 11 5 33 18 -0 21 12 24 3 -1 -6 -0 -20 -20 -20 -20 -20 -14 -13 -14 -3 -0 -3 -2 -20 -20 -20 -20 -20
17 -1 -20 -20 -20 -19 -15 -20 -15 -6 -19 -20 -20 -20 -20 -20 -20 13 7 8 16 -5 7 12 -1 2 -10 27 6 25 21 22 -9 12 -1 5 -2 -20 -14 -6 -20 -17 -12 -20 -10 -5 -5 -4 -17 -16 -13 -3 -2 -6
-11 -20 -20 -20 -20 -20 -20 -20 -17 -14 -15 -10 -17 -19 -17 -19 -2 -1 -1 -2 4 -0 -14 8 31 38 33 37 25 -7 -2 0 5 -4 1 3 4 1 -5 -6 -4 -2 -1 2 2 0 -1 -3 -3 -17 -9 -2 -5 -10
-20 -20 -20 -20 -20 -20 -20 -19 2 -6 5 8 2 -8 -2 2 2 3 5 11 17 15 22 39 32 21 -13 4 2 6 8 0 -10 2 6 5 -7 -1 -1 -0 0 1 2 4 2 0 2 0 -0 2 3 4 1 1
-20 -20 -20 -20 -20 -20 -20 -20 -20 -20 -20 -20 -15 6 -6 8 4 4 9 17 11 12 10 3 1 12 4 -12 -20 -5 -9 -2 6 8 10 -4 -1 2 3 1 1 5 6 6 4 2 0 -1 -1 2 -1 -1 2 1
-20 -2 -20 -20 -20 -20 -20 -20 -20 -20 -20 -3 1 -1 6 2 3 1 1 -1 -20 -19 -7 -20 -20 -3 -20 -18 -4 -3 2 8 9 7 5 4 3 3 -0 2 8 5 4 5 5 3 5 7 7 4 -2 6 6 9
-20 -20 -20 -20 -20 -20 -20 -20 -20 -20 -4 4 -1 4 -0 1 3 1 -0 -20 -20 -20 -20 -20 -20 -20 -4 -1 1 6 6 5 5 4 6 5 4 7 5 1 4 2 0 2 0 1 -2 -0 -2 3 1 4 3 5
-20 -20 -20 -20 -20 -20 -20 -20 -20 -13 0 3 5 2 3 4 -2 -2 -14 -20 -20 -20 -20 -20 -15 0 4 11 8 8 12 9 5 5 2 2 1 -0 1 0 1 1 0 1 0 -1 0 2 3 2 2 -1 -1 -1
-20 -20 -20 -20 -20 -20 -20 -20 -20 -20 -2 -1 -15 -20 -2 -2 -1 0 -20 -20 -20 -20 -20 -8 4 10 8 10 7 4 3 5 5 4 4 5 4 2 7 8 4 4 1 1 0 -2 -8 -16 -6 -3 -2 -4 -20 -20
-20 -20 -20 -20 -20 -20 -20 -20 -11 -20 -20 -16 -20 -20 1 -20 -13 -20 -20 -20 -20 -3 2 8 5 2 3 5 5 1 0 -3 5 7 2 2 5 6 5 6 5 5 4 4 -1 1 -0 -0 -3 -13 -2 1 -1 -3
-20 -20 -20 -20 -20 -20 -13 -20 -7 -12 -2 -20 -20 -20 2 1 -15 -20 -20 -20 3 5 5 6 7 6 0 -0 -0 2 4 0 -2 -4 -14 -5 8 5 5 7 3 3 1 2 1 1 -14 -20 -4 -3 -0 -1 -2 -5
-20 -20 -20 -20 -20 -20 -19 -3 -8 -18 2 -20 -20 -20 -20 -6 -20 -20 -6 -9 6 6 4 2 2 3 2 3 -0 0 2 3 2 3 2 1 3 4 2 1 4 4 1 -17 -12 -11 -20 -20 -11 -0 -2 -0 -2 -7
-20 -20 -20 -20 -20 -8 -20 -20 -20 -20 -20 -20 -20 -20 -19 -20 -20 -20 -2 4 7 5 3 5 4 -2 -2 0 -0 1 0 -2 -2 -0 1 0 -2 -17 -16 -16 -4 -16 -16 -20 -20 -8 -16 -4 -18 -1 -2 -0 -2 -4
-20 -20 -20 -20 -20 -20 -20 -20 -20 -20 -20 -20 -20 -20 -20 -20 -20 -20 -3 2 4 6 6 3 -2 1 0 -0 -1 -2 -7 -20 -2 -3 -20 -20 -20 -19 -20 -20 -20 -20 -20 1 0 -2 -4 -18 -5 -11 -20 -20 -20 -20
-20 -17 -20 -20 -20 -20 -20 -20 -20 -20 -20 -20 -20 -20 -20 -20 -20 -15 -3 4 5 5 6 7 6 2 -1 -5 -2 -1 -13 -20 -20 -20 -20 -20 -20 -9 -9 -17 -20 -20 -12 -4 -2 -3 -20 -20 -20 -20 -20 -20 -20 -20
-20 -20 -20 -20 -20 -20 -20 -20 -20 -20 -20 -20 -20 -20 -20 -20 -20 -3 -0 2 3 3 0 2 -0 -1 -14 -20 -20 -20 -20 -20 -20 -20 -20 -20 -20 -20 -12 -1 -8 -8 -20 -5 -2 -1 -2 -11 -11 -7 -3 -1 -9 -4
-20 -20 -20 -20 -20 -20 -20 -20 -20 -20 -20 -20 -20 -20 -20 -20 -20 2 1 3 2 -2 -4 -18 -20 -20 -20 -20 -20 -20 -20 -20 -20 -20 -20 -20 -20 -20 -19 -5 -20 -20 -1 -17 1 -3 -2 -1 -3 -4 -3 -0 -3 -5
-20 -20 -20 -20 -20 -20 -20 -20 -20 -20 -20 -20 -20 -20 -20 -12 3 0 5 -0 -1 1 0 0 -1 -20 -20 -20 -18 -2 -2 -3 -16 -20 -20 -5 -3 -2 -4 -2 -2 -1 2 -1 -20 -15 -14 -9 -7 -4 -5 -2 -1 -3
-20 -20 -20 -20 -20 -20 -2 -11 -0 -1 -20 -20 -20 -19 -1 2 1 5 3 5 5 6 2 2 2 3 -7 -2 -8 -10 -11 -20 -20 -6 -1 -2 1 -2 -1 1 1 0 1 2 1 -1 -11 -2 -13 -13 -6 -2 -1 1
-20 -20 -20 -20 -15 3 3 1 -5 -10 -10 -9 -11 -20 -7 1 3 -0 0 1 2 2 3 1 -6 -2 -8 -20 -20 -20 -10 -15 -20 -20 -20 -3 -1 1 0 -2 2 1 2 1 0 -0 -1 -2 -2 -2 -3 -3 -4 -20
-20 -20 -20 -20 -13 0 -5 -6 -20 -20 -19 -20 -11 -20 -6 -1 -6 1 -1 2 3 3 -19 2 2 2 -19 -20 -19 -20 -19 -20 -20 -8 -20 -3 -0 -3 -2 -2 -3 -1 0 -3 -2 -3 -6 -5 -3 -2 -2 -4 -5 -11
-20 -20 -20 -20 -20 -20 -20 -20 -20 -20 -20 -20 -20 -8 -6 -16 -13 -2 -17 -20 -6 2 1 -0 -1 -20 -20 -20 -20 -20 -20 -20 -20 -20 -20 -20 -20 -20 -14 -4 -4 -20 -20 -20 -20 -20 -20 -20 -18 -20 -20 -20 -20 -20

GFSWCAN_prec_radar_093.txt.gz
Reflectivity
6 -12 9 9 2 4 10 6 -4 16 19 19 14 -6 -20 0 19 15 -1 -14 28 25 -20 -15 -13 -20 -20 -9 -4 20 -20 -15 19 -13 -20 -20 -20 -18 -3 23 12 0 -9 -11 -1 16 -15 -20 -4 -2 39 19 -20 -20
-14 7 2 3 1 3 11 -5 -0 -9 -17 22 5 -17 -19 8 17 -11 13 -15 -5 28 2 -20 -20 -20 -20 -18 22 11 18 17 7 -20 -20 -20 -20 14 26 -15 14 -20 -18 -18 -20 -20 -19 -20 -20 -18 -18 -20 -20 -20
9 9 -2 7 9 -0 4 2 6 7 1 4 9 9 5 -9 17 15 -1 11 9 28 -1 -17 -20 -17 -20 -0 40 15 20 35 22 17 -20 15 -17 -20 15 -14 16 13 13 -7 13 13 6 27 -12 20 -3 -20 -20 -20
10 2 -8 5 3 -13 3 7 8 3 6 14 7 9 10 -8 9 11 -1 5 8 -0 -20 -20 -16 -5 -20 -20 16 28 -6 8 21 15 -20 -20 -20 1 -0 33 -20 -5 28 29 24 9 -5 -20 -10 -7 -20 -20 -20 -20
4 -4 9 6 7 5 11 10 11 6 -0 -20 15 12 14 15 12 18 5 8 -20 -19 -0 -8 -20 -20 -20 -20 -19 22 1 21 -10 -20 -20 -20 8 3 25 20 -8 -2 27 35 24 36 26 -11 -20 -13 -20 -20 -20 -20
7 11 7 16 17 11 9 18 11 0 3 5 -3 14 18 14 24 32 38 19 7 -20 6 -18 15 -20 -20 -2 -20 -20 -9 23 -19 -20 -20 -3 -0 31 29 -20 -20 -20 8 31 28 29 12 -20 -20 -20 -20 -20 -20 -20
12 14 19 14 7 22 15 5 5 -16 9 10 3 11 14 16 32 30 14 -3 5 0 31 10 -7 -15 -17 -20 -20 -16 -20 11 -14 18 -4 12 27 16 20 3 -6 24 6 -4 4 -20 -20 -20 -20 -20 -20 -20 -20 -20
16 12 9 12 12 21 13 12 13 5 -4 -2 -4 18 24 29 31 18 -1 6 -2 17 16 -5 10 20 -0 21 19 20 15 7 11 7 4 24 28 17 6 -20 3 10 9 10 -3 -20 -20 -20 -20 -20 -20 -20 -20 -20
15 12 5 5 23 4 17 22 12 23 20 6 16 24 35 35 38 21 2 10 7 8 -9 -19 -15 11 24 23 18 14 0 15 33 -3 -12 5 8 21 -1 -19 2 13 -19 -19 -20 -20 -20 -20 -20 -20 -20 -20 -20 -20
18 4 -19 12 14 17 25 5 12 23 35 20 26 31 29 28 24 28 34 36 32 20 -20 30 -16 27 26 -11 7 18 -9 0 9 -5 -4 -3 -18 -16 -20 -20 -20 -20 -20 -20 -20 -20 -20 -20 -18 -20 -20 -20 -20 -20
18 23 9 11 1 27 14 15 6 13 19 21 30 32 24 14 26 32 17 13 -1 -9 -20 -20 14 -14 5 32 -11 -20 -20 7 -20 -5 -5 -15 -5 6 -19 -20 -6 0 -20 -20 -20 -20 -20 -19 -19 -19 -20 -20 -20 -20
26 21 -9 -16 -10 13 20 36 34 23 26 9 21 28 18 34 32 16 -16 -2 -20 1 -20 -20 24 -17 -20 12 33 5 -20 -11 -13 -20 -4 -18 1 -19 -20 -20 -20 -20 -20 -20 -20 -20 -20 -20 -20 -20 -20 -20 -20 -16
28 -6 -20 -20 -15 -20 -3 22 32 25 17 9 2 21 17 12 9 -16 -20 -13 -18 -19 -12 -8 -15 -20 -20 -20 1 31 -20 -20 -20 -20 -18 -20 -19 -20 -20 -20 -20 -20 -20 -20 -20 -20 -20 -20 -20 -20 -20 -20 -20 -20
-20 -20 -20 -20 10 -14 -10 -13 -20 -3 -3 -10 -19 -20 -20 -20 -19 -18 -20 -14 -16 -20 -20 -20 -20 -20 -20 -20 25 13 -20 -20 -17 -20 -20 -18 -20 -20 -20 -20 -20 -20 -20 -19 -20 -20 -20 -20 -20 -20 -20 -20 -20 -20
-20 -20 -20 -20 -20 -20 -20 -20 -20 -20 -20 -20 -20 -10 -20 -16 -10 -15 -18 -18 -17 -19 -20 -15 -13 1 -20 -16 16 -0 -18 -20 -20 -20 -17 -18 -20 -20 -20 -6 -20 -20 -20 -20 -20 -20 -20 -20 -20 -20 -20 -20 -20 -20
-20 -20 -20 -20 -20 -20 -19 -13 -14 -19 -20 -20 -20 -6 -13 -20 -20 -20 -20 -20 -19 -20 -16 -1 -20 -20 -20 -20 -20 -20 -19 -20 -12 -8 -20 -20 -20 -20 -20 -20 -20 -20 -20 -20 -20 -20 -20 -20 -20 -20 -20 -20 -20 -20
-20 -18 -20 -20 -6 6 -19 -20 -20 -20 -20 -20 -1 5 11 7 -10 -20 -10 -20 -2 8 -5 -13 -20 -5 -20 -8 12 8 -8 -14 -20 -20 -20 -20 -20 -20 -6 -9 -20 -20 -20 -19 -6 -4 -1 -20 -20 -20 -20 -20 -20 -20
-20 -20 -20 -20 -9 -20 -20 -20 -20 -20 -20 -20 -20 -7 -6 -20 -3 -7 4 0 5 6 14 19 12 -20 -20 -20 -19 -2 -20 -20 -20 -20 -20 -20 -20 -20 -20 -20 -20 -20 -20 -20 -20 -20 -20 -20 -20 -20 -20 -20 -20 -20
-20 -20 -20 -20 -20 -20 -20 -20 -20 -6 4 -2 1 4 -11 4 -6 -9 -11 -15 -15 -20 -20 -20 -20 -20 -17 -8 -20 -20 -16 -20 -20 -20 -20 -20 -20 -20 -20 -20 -20 -20 -20 -20 -20 -15 -16 -20 -19 -15 -12 -20 -20 -20
-20 -20 -20 -20 -20 -20 -20 -11 -20 -20 -20 -15 -5 -20 -14 7 -19 -20 -20 -20 -20 -20 -20 -20 -20 -10 -1 0 -20 -20 -6 -20 -20 -20 -20 -11 -6 -3 -9 -20 -20 -20 -20 -20 -20 -20 -20 -20 -20 -20 -19 -20 -20 -20
-20 -20 -20 -20 -20 -20 -20 -20 -15 -20 -20 -3 -20 -20 -20 -20 -20 -20 -20 -20 -20 1 -2 -11 -11 -20 -20 -20 -20 -20 -20 -7 -5 -20 -20 -5 -20 -16 -20 6 9 -18 -20 -20 -20 -20 -20 -20 -20 -20 -20 -20 -20 -20
-20 -20 -20 -20 -20 -20 -20 -17 -20 -19 -20 -7 -20 -1 -20 -20 -20 -20 -20 -20 -1 -7 -5 -9 -11 -20 -20 -17 -20 -20 -20 -20 -20 -20 -20 -7 -20 -20 -19 -20 -20 -20 -20 -20 -20 -20 -20 -20 -20 -20 -20 -20 -20 -20
-20 -20 -20 -20 -20 -20 -20 -20 -20 -7 -20 -16 -17 -18 -20 -20 -15 -20 -20 -1 5 -10 -20 -20 -20 -20 -20 -20 -20 -20 -20 -20 -13 -20 -20 -20 -20 -20 -20 -20 -19 -20 -20 -20 -20 -20 -20 -20 -20 -20 -20 -20 -20 -20
-20 -20 -20 -20 -20 -11 -20 -20 -20 -20 -18 -20 -20 -20 -20 -20 -20 -20 -17 6 6 -20 -20 -20 -20 -6 -17 -20 -20 -20 -13 -20 -20 -20 -20 -20 -20 -20 -20 -20 -20 -20 -20 -20 -20 -20 -20 -20 -20 -20 -20 -20 -20 -20
-20 -20 -20 -20 -20 -20 -20 -20 -20 -20 -20 -20 -20 -20 -20 -20 -20 -20 -19 6 5 -6 -8 -18 -15 -20 -20 -20 -20 -20 -20 -20 -20 -20 -20 -20 -20 -20 -20 -20 -20 -20 -20 -20 -20 -20 -20 -20 -20 -20 -20 -20 -20 -20
-20 -20 -20 -20 -20 -20 -20 -20 -20 -20 -20 -20 -20 -20 -20 -20 -20 -20 1 -20 -20 2 -12 -20 -15 -20 -20 -20 -20 -20 -20 -20 -20 -20 -20 -20 -20 -20 -20 -20 -20 -20 -20 -20 -20 -20 -20 -20 -20 -20 -20 -20 -20 -20
-20 -20 -20 -20 -20 -20 -20 -20 -20 -20 -20 -20 -20 -20 -20 -20 -20 -12 -15 -20 -20 -20 -20 -20 -20 -20 -20 -20 -20 -20 -20 -20 -20 -20 -20 -20 -20 -20 -20 -20 -20 -20 -20 -20 -20 -20 -20 -20 -20 -20 -20 -20 -20 -20
-20 -20 -20 -20 -20 -20 -20 -20 -20 -20 -20 -20 -20 -20 -20 -20 -10 0 -20 -20 -20 -20 -20 -20 -20 -20 -20 -20 -20 -20 -20 -20 -20 -20 -20 -20 -20 -20 -20 -20 -20 -20 -20 -20 -20 -20 -20 -20 -20 -20 -20 -20 -20 -20
-20 -20 -20 -20 -20 -20 -20 -20 -20 -20 -20 -20 -20 -20 -20 -17 -20 -20 -20 -20 -20 -20 -20 -20 -20 -20 -20 -20 -20 -20 -20 -20 -20 -20 -20 -20 -20 -20 -20 -20 -20 -20 -20 -20 -20 -20 -20 -20 -20 -20 -20 -20 -20 -20
-20 -20 -20 -20 -20 -16 -13 -12 -20 -20 -20 -20 -19 -15 -20 -12 -20 -20 -20 -8 6 -8 -20 -20 -19 -20 -20 -20 -20 -20 -20 -20 -20 -20 -20 -20 -20 -20 -20 -20 -20 -20 -20 -20 -20 -20 -20 -20 -20 -20 -20 -20 -20 -20
-20 -20 -20 -20 -16 -10 -18 -20 -20 -20 -20 -20 -20 -20 -20 -20 -20 -19 -20 -20 -20 -20 -20 -20 -20 -20 -20 -20 -20 -20 -20 -20 -20 -20 -20 -20 -20 -20 -20 -20 -20 -20 -20 -20 -20 -20 -20 -20 -20 -20 -20 -20 -20 -20
-20 -20 -20 -20 -20 -17 -17 -19 -20 -20 -20 -20 -20 -20 -20 -20 -20 -20 -20 -20 -20 -20 -19 -20 -20 -20 -20 -20 -20 -20 -20 -20 -20 -20 -20 -20 -20 -20 -20 -20 -20 -20 -20 -20 -20 -20 -20 -20 -20 -20 -20 -20 -20 -20
-20 -20 -20 -20 -20 -20 -20 -20 -20 -20 -20 -20 -20 -20 -20 -20 -20 -20 -20 -20 -19 -20 -20 -20 -20 -20 -20 -20 -20 -20 -20 -20 -20 -20 -20 -20 -20 -20 -20 -20 -20 -20 -20 -20 -20 -20 -20 -20 -20 -20 -20 -20 -20 -20